Time,TemperatureF,DewpointF,PressureIn,WindDirection,WindDirectionDegrees,WindSpeedMPH,WindSpeedGustMPH,Humidity,HourlyPrecipIn,Conditions,Clouds,dailyrainin,SoftwareType,DateUTC
2013-05-02 00:00:00,56.5,43.6,30.31,South,190,3.0,3.0,62,0.00,,,0.00,Wunderground v.1.15,2013-05-02 04:00:00,
2013-05-02 00:01:00,56.4,43.5,30.31,South,190,3.0,4.0,62,0.00,,,0.00,Wunderground v.1.15,2013-05-02 04:01:00,
2013-05-02 00:03:00,56.4,43.5,30.31,South,186,4.0,11.0,62,0.00,,,0.00,Wunderground v.1.15,2013-05-02 04:03:00,
2013-05-02 00:04:00,56.3,43.4,30.31,SSW,200,4.0,11.0,62,0.00,,,0.00,Wunderground v.1.15,2013-05-02 04:04:00,
2013-05-02 00:05:00,56.3,43.4,30.31,South,176,4.0,11.0,62,0.00,,,0.00,Wunderground v.1.15,2013-05-02 04:05:00,
2013-05-02 00:09:00,56.2,43.3,30.31,South,184,3.0,11.0,62,0.00,,,0.00,Wunderground v.1.15,2013-05-02 04:09:00,
2013-05-02 00:10:00,56.1,43.3,30.31,South,190,3.0,3.0,62,0.00,,,0.00,Wunderground v.1.15,2013-05-02 04:10:00,
2013-05-02 00:11:00,56.1,43.3,30.31,South,190,3.0,11.0,62,0.00,,,0.00,Wunderground v.1.15,2013-05-02 04:11:00,
2013-05-02 00:12:00,56.1,43.3,30.31,South,190,3.0,11.0,62,0.00,,,0.00,Wunderground v.1.15,2013-05-02 04:12:00,
2013-05-02 00:15:00,56.0,43.2,30.31,SSE,161,3.0,11.0,62,0.00,,,0.00,Wunderground v.1.15,2013-05-02 04:15:00,
2013-05-02 00:16:00,56.0,43.2,30.32,South,181,2.0,11.0,62,0.00,,,0.00,Wunderground v.1.15,2013-05-02 04:16:00,
2013-05-02 00:17:00,55.9,43.1,30.32,South,184,3.0,11.0,62,0.00,,,0.00,Wunderground v.1.15,2013-05-02 04:17:00,
2013-05-02 00:19:00,55.9,43.5,30.32,South,191,3.0,11.0,63,0.00,,,0.00,Wunderground v.1.15,2013-05-02 04:19:00,
2013-05-02 00:22:00,55.8,43.4,30.32,South,188,3.0,11.0,63,0.00,,,0.00,Wunderground v.1.15,2013-05-02 04:22:00,
2013-05-02 00:25:00,55.8,43.4,30.32,SSW,198,3.0,11.0,63,0.00,,,0.00,Wunderground v.1.15,2013-05-02 04:25:00,
2013-05-02 00:29:00,55.7,43.3,30.32,SSW,199,2.0,11.0,63,0.00,,,0.00,Wunderground v.1.15,2013-05-02 04:29:00,
2013-05-02 00:31:00,55.6,43.2,30.32,SSW,199,2.0,3.0,63,0.00,,,0.00,Wunderground v.1.15,2013-05-02 04:31:00,
2013-05-02 00:33:00,55.6,43.2,30.32,South,191,2.0,11.0,63,0.00,,,0.00,Wunderground v.1.15,2013-05-02 04:33:00,
2013-05-02 00:37:00,55.5,43.1,30.32,South,191,1.0,11.0,63,0.00,,,0.00,Wunderground v.1.15,2013-05-02 04:37:00,
2013-05-02 00:38:00,55.4,43.0,30.32,South,191,1.0,11.0,63,0.00,,,0.00,Wunderground v.1.15,2013-05-02 04:38:00,
2013-05-02 00:40:00,55.4,43.0,30.32,SSW,213,1.0,11.0,63,0.00,,,0.00,Wunderground v.1.15,2013-05-02 04:40:00,
2013-05-02 00:42:00,55.3,42.9,30.32,SW,217,1.0,11.0,63,0.00,,,0.00,Wunderground v.1.15,2013-05-02 04:42:00,
2013-05-02 00:44:00,55.3,42.9,30.31,SW,218,1.0,11.0,63,0.00,,,0.00,Wunderground v.1.15,2013-05-02 04:44:00,
2013-05-02 00:45:00,55.3,42.9,30.32,SW,218,1.0,11.0,63,0.00,,,0.00,Wunderground v.1.15,2013-05-02 04:45:00,
2013-05-02 00:46:00,55.3,42.9,30.32,SW,218,1.0,11.0,63,0.00,,,0.00,Wunderground v.1.15,2013-05-02 04:46:00,
2013-05-02 00:47:00,55.2,42.8,30.32,SW,214,1.0,11.0,63,0.00,,,0.00,Wunderground v.1.15,2013-05-02 04:47:00,
2013-05-02 00:51:00,55.1,42.7,30.32,SSW,201,1.0,11.0,63,0.00,,,0.00,Wunderground v.1.15,2013-05-02 04:51:00,
2013-05-02 00:53:00,55.0,42.6,30.31,SSW,201,1.0,11.0,63,0.00,,,0.00,Wunderground v.1.15,2013-05-02 04:53:00,
2013-05-02 00:56:00,55.0,42.6,30.32,SSW,201,1.0,11.0,63,0.00,,,0.00,Wunderground v.1.15,2013-05-02 04:56:00,
2013-05-02 00:58:00,54.9,42.5,30.32,SSW,205,1.0,11.0,63,0.00,,,0.00,Wunderground v.1.15,2013-05-02 04:58:00,
2013-05-02 01:00:00,54.8,42.9,30.32,SSW,210,1.0,1.0,64,0.00,,,0.00,Wunderground v.1.15,2013-05-02 05:00:00,
2013-05-02 01:03:00,54.7,42.8,30.32,SSW,212,0.0,5.0,64,0.00,,,0.00,Wunderground v.1.15,2013-05-02 05:03:00,
2013-05-02 01:05:00,54.7,42.8,30.32,SSW,212,0.0,5.0,64,0.00,,,0.00,Wunderground v.1.15,2013-05-02 05:05:00,
2013-05-02 01:07:00,54.6,42.3,30.32,SSW,212,0.0,5.0,63,0.00,,,0.00,Wunderground v.1.15,2013-05-02 05:07:00,
2013-05-02 01:10:00,54.5,42.2,30.31,SW,214,0.0,5.0,63,0.00,,,0.00,Wunderground v.1.15,2013-05-02 05:10:00,
2013-05-02 01:11:00,54.5,42.2,30.31,SW,215,0.0,5.0,63,0.00,,,0.00,Wunderground v.1.15,2013-05-02 05:11:00,
2013-05-02 01:12:00,54.4,42.5,30.31,SW,215,0.0,5.0,64,0.00,,,0.00,Wunderground v.1.15,2013-05-02 05:12:00,
2013-05-02 01:17:00,54.2,42.3,30.31,SW,223,1.0,5.0,64,0.00,,,0.00,Wunderground v.1.15,2013-05-02 05:17:00,
2013-05-02 01:18:00,54.2,42.3,30.31,SW,223,1.0,5.0,64,0.00,,,0.00,Wunderground v.1.15,2013-05-02 05:18:00,
2013-05-02 01:20:00,54.1,42.2,30.31,WSW,239,1.0,5.0,64,0.00,,,0.00,Wunderground v.1.15,2013-05-02 05:20:00,
2013-05-02 01:21:00,54.1,42.2,30.31,WSW,237,1.0,5.0,64,0.00,,,0.00,Wunderground v.1.15,2013-05-02 05:21:00,
2013-05-02 01:27:00,53.9,42.0,30.31,SW,236,1.0,5.0,64,0.00,,,0.00,Wunderground v.1.15,2013-05-02 05:27:00,
2013-05-02 01:28:00,53.8,41.9,30.31,SW,236,1.0,5.0,64,0.00,,,0.00,Wunderground v.1.15,2013-05-02 05:28:00,
2013-05-02 01:29:00,53.8,41.9,30.31,SW,236,1.0,5.0,64,0.00,,,0.00,Wunderground v.1.15,2013-05-02 05:29:00,
2013-05-02 01:34:00,53.6,41.3,30.31,SSW,211,1.0,5.0,63,0.00,,,0.00,Wunderground v.1.15,2013-05-02 05:34:00,
2013-05-02 01:35:00,53.6,41.3,30.31,SSW,213,1.0,5.0,63,0.00,,,0.00,Wunderground v.1.15,2013-05-02 05:35:00,
2013-05-02 01:36:00,53.6,41.3,30.31,SSW,213,1.0,5.0,63,0.00,,,0.00,Wunderground v.1.15,2013-05-02 05:36:00,
2013-05-02 01:37:00,53.6,41.3,30.31,SSW,213,1.0,5.0,63,0.00,,,0.00,Wunderground v.1.15,2013-05-02 05:37:00,
2013-05-02 01:38:00,53.6,41.3,30.31,SSW,213,1.0,5.0,63,0.00,,,0.00,Wunderground v.1.15,2013-05-02 05:38:00,
2013-05-02 01:42:00,53.5,41.2,30.31,SW,223,1.0,5.0,63,0.00,,,0.00,Wunderground v.1.15,2013-05-02 05:42:00,
2013-05-02 01:43:00,53.5,41.2,30.31,SW,233,1.0,5.0,63,0.00,,,0.00,Wunderground v.1.15,2013-05-02 05:43:00,
2013-05-02 01:45:00,53.5,41.2,30.31,SW,234,1.0,5.0,63,0.00,,,0.00,Wunderground v.1.15,2013-05-02 05:45:00,
2013-05-02 01:46:00,53.5,41.2,30.31,SW,234,1.0,5.0,63,0.00,,,0.00,Wunderground v.1.15,2013-05-02 05:46:00,
2013-05-02 01:50:00,53.4,41.5,30.31,WSW,238,1.0,1.0,64,0.00,,,0.00,Wunderground v.1.15,2013-05-02 05:50:00,
2013-05-02 01:51:00,53.4,41.5,30.31,WSW,238,1.0,2.0,64,0.00,,,0.00,Wunderground v.1.15,2013-05-02 05:51:00,
2013-05-02 01:53:00,53.3,41.4,30.31,WSW,241,1.0,5.0,64,0.00,,,0.00,Wunderground v.1.15,2013-05-02 05:53:00,
2013-05-02 01:54:00,53.3,41.4,30.31,WSW,241,1.0,5.0,64,0.00,,,0.00,Wunderground v.1.15,2013-05-02 05:54:00,
2013-05-02 01:55:00,53.3,41.4,30.31,WSW,241,1.0,5.0,64,0.00,,,0.00,Wunderground v.1.15,2013-05-02 05:55:00,
2013-05-02 01:59:00,53.1,41.2,30.31,WSW,244,2.0,5.0,64,0.00,,,0.00,Wunderground v.1.15,2013-05-02 05:59:00,
2013-05-02 02:01:00,53.0,41.1,30.31,WSW,248,2.0,5.0,64,0.00,,,0.00,Wunderground v.1.15,2013-05-02 06:01:00,
2013-05-02 02:02:00,53.0,41.1,30.31,WSW,248,2.0,5.0,64,0.00,,,0.00,Wunderground v.1.15,2013-05-02 06:02:00,
2013-05-02 02:03:00,52.9,41.0,30.31,WSW,249,2.0,5.0,64,0.00,,,0.00,Wunderground v.1.15,2013-05-02 06:03:00,
2013-05-02 02:05:00,52.9,41.0,30.31,WSW,249,2.0,5.0,64,0.00,,,0.00,Wunderground v.1.15,2013-05-02 06:05:00,
2013-05-02 02:09:00,52.7,41.7,30.31,WSW,249,1.0,5.0,66,0.00,,,0.00,Wunderground v.1.15,2013-05-02 06:09:00,
2013-05-02 02:11:00,52.6,41.6,30.31,WSW,249,1.0,5.0,66,0.00,,,0.00,Wunderground v.1.15,2013-05-02 06:11:00,
2013-05-02 02:13:00,52.5,41.9,30.31,WSW,249,1.0,5.0,67,0.00,,,0.00,Wunderground v.1.15,2013-05-02 06:13:00,
2013-05-02 02:15:00,52.4,42.1,30.30,WSW,249,1.0,5.0,68,0.00,,,0.00,Wunderground v.1.15,2013-05-02 06:15:00,
2013-05-02 02:16:00,52.3,42.0,30.30,WSW,249,1.0,5.0,68,0.00,,,0.00,Wunderground v.1.15,2013-05-02 06:16:00,
2013-05-02 02:18:00,52.2,42.0,30.30,WSW,249,1.0,5.0,68,0.00,,,0.00,Wunderground v.1.15,2013-05-02 06:18:00,
2013-05-02 02:21:00,52.1,41.9,30.30,WSW,250,2.0,5.0,68,0.00,,,0.00,Wunderground v.1.15,2013-05-02 06:21:00,
2013-05-02 02:22:00,52.1,41.9,30.30,WSW,250,2.0,5.0,68,0.00,,,0.00,Wunderground v.1.15,2013-05-02 06:22:00,
2013-05-02 02:23:00,52.1,41.9,30.30,WSW,249,2.0,5.0,68,0.00,,,0.00,Wunderground v.1.15,2013-05-02 06:23:00,
2013-05-02 02:24:00,52.0,41.8,30.30,WSW,249,2.0,5.0,68,0.00,,,0.00,Wunderground v.1.15,2013-05-02 06:24:00,
2013-05-02 02:28:00,51.9,42.0,30.30,WSW,250,1.0,5.0,69,0.00,,,0.00,Wunderground v.1.15,2013-05-02 06:28:00,
2013-05-02 02:29:00,51.9,42.0,30.30,WSW,250,1.0,5.0,69,0.00,,,0.00,Wunderground v.1.15,2013-05-02 06:29:00,
2013-05-02 02:31:00,51.8,41.9,30.30,WSW,250,1.0,5.0,69,0.00,,,0.00,Wunderground v.1.15,2013-05-02 06:31:00,
2013-05-02 02:33:00,51.8,41.9,30.30,WSW,250,1.0,5.0,69,0.00,,,0.00,Wunderground v.1.15,2013-05-02 06:33:00,
2013-05-02 02:34:00,51.7,41.9,30.30,WSW,250,1.0,5.0,69,0.00,,,0.00,Wunderground v.1.15,2013-05-02 06:34:00,
2013-05-02 02:36:00,51.7,41.9,30.30,WSW,250,1.0,5.0,69,0.00,,,0.00,Wunderground v.1.15,2013-05-02 06:36:00,
2013-05-02 02:37:00,51.7,41.9,30.30,WSW,250,1.0,5.0,69,0.00,,,0.00,Wunderground v.1.15,2013-05-02 06:37:00,
2013-05-02 02:38:00,51.7,41.9,30.30,WSW,250,0.0,5.0,69,0.00,,,0.00,Wunderground v.1.15,2013-05-02 06:38:00,
2013-05-02 02:40:00,51.6,41.8,30.30,WSW,250,0.0,5.0,69,0.00,,,0.00,Wunderground v.1.15,2013-05-02 06:40:00,
2013-05-02 02:42:00,51.6,42.1,30.30,WSW,250,0.0,5.0,70,0.00,,,0.00,Wunderground v.1.15,2013-05-02 06:42:00,
2013-05-02 02:44:00,51.5,42.0,30.30,WSW,250,0.0,5.0,70,0.00,,,0.00,Wunderground v.1.15,2013-05-02 06:44:00,
2013-05-02 02:47:00,51.5,42.0,30.30,WSW,250,0.0,5.0,70,0.00,,,0.00,Wunderground v.1.15,2013-05-02 06:47:00,
2013-05-02 02:48:00,51.4,41.9,30.30,WSW,250,0.0,5.0,70,0.00,,,0.00,Wunderground v.1.15,2013-05-02 06:48:00,
2013-05-02 02:49:00,51.4,41.9,30.30,WSW,250,0.0,5.0,70,0.00,,,0.00,Wunderground v.1.15,2013-05-02 06:49:00,
2013-05-02 02:54:00,51.2,42.1,30.30,WSW,250,0.0,5.0,71,0.00,,,0.00,Wunderground v.1.15,2013-05-02 06:54:00,
2013-05-02 02:57:00,51.1,42.0,30.30,WSW,250,0.0,5.0,71,0.00,,,0.00,Wunderground v.1.15,2013-05-02 06:57:00,
2013-05-02 02:59:00,51.0,41.9,30.30,WSW,250,0.0,5.0,71,0.00,,,0.00,Wunderground v.1.15,2013-05-02 06:59:00,
2013-05-02 03:00:00,50.9,41.8,30.29,WSW,250,0.0,0.0,71,0.00,,,0.00,Wunderground v.1.15,2013-05-02 07:00:00,
2013-05-02 03:01:00,50.9,41.8,30.29,WSW,250,0.0,0.0,71,0.00,,,0.00,Wunderground v.1.15,2013-05-02 07:01:00,
2013-05-02 03:05:00,50.8,42.1,30.29,WSW,250,0.0,0.0,72,0.00,,,0.00,Wunderground v.1.15,2013-05-02 07:05:00,
2013-05-02 03:06:00,50.7,42.0,30.29,WSW,250,0.0,0.0,72,0.00,,,0.00,Wunderground v.1.15,2013-05-02 07:06:00,
2013-05-02 03:07:00,50.6,41.9,30.29,WSW,250,0.0,0.0,72,0.00,,,0.00,Wunderground v.1.15,2013-05-02 07:07:00,
2013-05-02 03:08:00,50.6,41.9,30.29,WSW,250,0.0,0.0,72,0.00,,,0.00,Wunderground v.1.15,2013-05-02 07:08:00,
2013-05-02 03:12:00,50.4,42.1,30.29,WSW,250,0.0,0.0,73,0.00,,,0.00,Wunderground v.1.15,2013-05-02 07:12:00,
2013-05-02 03:13:00,50.4,42.1,30.29,WSW,250,0.0,0.0,73,0.00,,,0.00,Wunderground v.1.15,2013-05-02 07:13:00,
2013-05-02 03:17:00,50.3,42.0,30.29,WSW,250,0.0,0.0,73,0.00,,,0.00,Wunderground v.1.15,2013-05-02 07:17:00,
2013-05-02 03:18:00,50.2,41.9,30.29,WSW,250,0.0,0.0,73,0.00,,,0.00,Wunderground v.1.15,2013-05-02 07:18:00,
2013-05-02 03:19:00,50.2,42.2,30.29,WSW,250,0.0,0.0,74,0.00,,,0.00,Wunderground v.1.15,2013-05-02 07:19:00,
2013-05-02 03:22:00,50.0,42.0,30.29,WSW,250,0.0,0.0,74,0.00,,,0.00,Wunderground v.1.15,2013-05-02 07:22:00,
2013-05-02 03:23:00,50.0,42.0,30.29,WSW,250,0.0,0.0,74,0.00,,,0.00,Wunderground v.1.15,2013-05-02 07:23:00,
2013-05-02 03:25:00,49.9,41.9,30.29,WSW,250,0.0,0.0,74,0.00,,,0.00,Wunderground v.1.15,2013-05-02 07:25:00,
2013-05-02 03:28:00,49.8,41.8,30.29,WSW,250,0.0,0.0,74,0.00,,,0.00,Wunderground v.1.15,2013-05-02 07:28:00,
2013-05-02 03:29:00,49.7,41.7,30.29,WSW,250,0.0,0.0,74,0.00,,,0.00,Wunderground v.1.15,2013-05-02 07:29:00,
2013-05-02 03:30:00,49.7,42.1,30.29,WSW,250,0.0,0.0,75,0.00,,,0.00,Wunderground v.1.15,2013-05-02 07:30:00,
2013-05-02 03:31:00,49.7,42.1,30.29,WSW,250,0.0,0.0,75,0.00,,,0.00,Wunderground v.1.15,2013-05-02 07:31:00,
2013-05-02 03:34:00,49.6,42.0,30.29,WSW,250,0.0,0.0,75,0.00,,,0.00,Wunderground v.1.15,2013-05-02 07:34:00,
2013-05-02 03:36:00,49.5,41.9,30.29,WSW,250,0.0,0.0,75,0.00,,,0.00,Wunderground v.1.15,2013-05-02 07:36:00,
2013-05-02 03:38:00,49.4,41.8,30.29,WSW,250,0.0,0.0,75,0.00,,,0.00,Wunderground v.1.15,2013-05-02 07:38:00,
2013-05-02 03:39:00,49.4,41.8,30.29,WSW,250,0.0,0.0,75,0.00,,,0.00,Wunderground v.1.15,2013-05-02 07:39:00,
2013-05-02 03:40:00,49.4,41.8,30.29,WSW,250,0.0,0.0,75,0.00,,,0.00,Wunderground v.1.15,2013-05-02 07:40:00,
2013-05-02 03:45:00,49.0,41.8,30.29,WSW,250,0.0,0.0,76,0.00,,,0.00,Wunderground v.1.15,2013-05-02 07:45:00,
2013-05-02 03:46:00,48.9,41.7,30.28,WSW,250,0.0,0.0,76,0.00,,,0.00,Wunderground v.1.15,2013-05-02 07:46:00,
2013-05-02 03:49:00,48.7,41.8,30.28,WSW,250,0.0,0.0,77,0.00,,,0.00,Wunderground v.1.15,2013-05-02 07:49:00,
2013-05-02 03:50:00,48.6,42.0,30.28,WSW,250,0.0,0.0,78,0.00,,,0.00,Wunderground v.1.15,2013-05-02 07:50:00,
2013-05-02 03:53:00,48.4,41.9,30.28,WSW,250,0.0,0.0,78,0.00,,,0.00,Wunderground v.1.15,2013-05-02 07:53:00,
2013-05-02 03:57:00,48.1,42.2,30.28,WSW,250,0.0,0.0,80,0.00,,,0.00,Wunderground v.1.15,2013-05-02 07:57:00,
2013-05-02 03:59:00,47.9,42.0,30.28,WSW,250,0.0,0.0,80,0.00,,,0.00,Wunderground v.1.15,2013-05-02 07:59:00,
2013-05-02 04:02:00,47.9,42.0,30.28,WSW,250,0.0,0.0,80,0.00,,,0.00,Wunderground v.1.15,2013-05-02 08:02:00,
2013-05-02 04:03:00,47.8,42.3,30.29,WSW,250,0.0,0.0,81,0.00,,,0.00,Wunderground v.1.15,2013-05-02 08:03:00,
2013-05-02 04:05:00,47.8,42.3,30.29,WSW,250,0.0,0.0,81,0.00,,,0.00,Wunderground v.1.15,2013-05-02 08:05:00,
2013-05-02 04:07:00,47.6,42.1,30.29,WSW,250,0.0,0.0,81,0.00,,,0.00,Wunderground v.1.15,2013-05-02 08:07:00,
2013-05-02 04:08:00,47.6,42.1,30.29,WSW,250,0.0,0.0,81,0.00,,,0.00,Wunderground v.1.15,2013-05-02 08:08:00,
2013-05-02 04:12:00,47.3,41.4,30.29,WSW,250,0.0,0.0,80,0.00,,,0.00,Wunderground v.1.15,2013-05-02 08:12:00,
2013-05-02 04:13:00,47.3,41.4,30.29,WSW,250,0.0,0.0,80,0.00,,,0.00,Wunderground v.1.15,2013-05-02 08:13:00,
2013-05-02 04:14:00,47.3,41.4,30.29,WSW,250,0.0,0.0,80,0.00,,,0.00,Wunderground v.1.15,2013-05-02 08:14:00,
2013-05-02 04:16:00,47.3,41.4,30.29,WSW,250,0.0,0.0,80,0.00,,,0.00,Wunderground v.1.15,2013-05-02 08:16:00,
2013-05-02 04:17:00,47.3,41.4,30.29,WSW,250,0.0,0.0,80,0.00,,,0.00,Wunderground v.1.15,2013-05-02 08:17:00,
2013-05-02 04:20:00,47.4,41.5,30.29,WSW,250,0.0,0.0,80,0.00,,,0.00,Wunderground v.1.15,2013-05-02 08:20:00,
2013-05-02 04:21:00,47.4,41.5,30.29,WSW,250,0.0,0.0,80,0.00,,,0.00,Wunderground v.1.15,2013-05-02 08:21:00,
2013-05-02 04:22:00,47.4,41.5,30.29,WSW,250,0.0,0.0,80,0.00,,,0.00,Wunderground v.1.15,2013-05-02 08:22:00,
2013-05-02 04:24:00,47.4,41.5,30.29,WSW,250,0.0,0.0,80,0.00,,,0.00,Wunderground v.1.15,2013-05-02 08:24:00,
2013-05-02 04:27:00,47.3,41.4,30.29,WSW,250,0.0,0.0,80,0.00,,,0.00,Wunderground v.1.15,2013-05-02 08:27:00,
2013-05-02 04:29:00,47.4,41.9,30.29,WSW,250,0.0,0.0,81,0.00,,,0.00,Wunderground v.1.15,2013-05-02 08:29:00,
2013-05-02 04:31:00,47.3,41.8,30.29,WSW,250,0.0,0.0,81,0.00,,,0.00,Wunderground v.1.15,2013-05-02 08:31:00,
2013-05-02 04:33:00,47.3,41.8,30.29,WSW,250,0.0,0.0,81,0.00,,,0.00,Wunderground v.1.15,2013-05-02 08:33:00,
2013-05-02 04:34:00,47.2,41.7,30.29,WSW,250,0.0,0.0,81,0.00,,,0.00,Wunderground v.1.15,2013-05-02 08:34:00,
2013-05-02 04:37:00,47.1,41.6,30.28,WSW,250,0.0,0.0,81,0.00,,,0.00,Wunderground v.1.15,2013-05-02 08:37:00,
2013-05-02 04:39:00,47.0,41.5,30.28,WSW,250,0.0,0.0,81,0.00,,,0.00,Wunderground v.1.15,2013-05-02 08:39:00,
2013-05-02 04:40:00,47.0,41.5,30.28,WSW,250,0.0,0.0,81,0.00,,,0.00,Wunderground v.1.15,2013-05-02 08:40:00,
2013-05-02 04:41:00,47.0,41.5,30.28,WSW,250,0.0,0.0,81,0.00,,,0.00,Wunderground v.1.15,2013-05-02 08:41:00,
2013-05-02 04:42:00,46.9,41.4,30.28,WSW,250,0.0,0.0,81,0.00,,,0.00,Wunderground v.1.15,2013-05-02 08:42:00,
2013-05-02 04:44:00,46.8,41.3,30.28,WSW,250,0.0,0.0,81,0.00,,,0.00,Wunderground v.1.15,2013-05-02 08:44:00,
2013-05-02 04:47:00,46.7,41.5,30.28,WSW,250,0.0,0.0,82,0.00,,,0.00,Wunderground v.1.15,2013-05-02 08:47:00,
2013-05-02 04:49:00,46.6,41.4,30.28,WSW,250,0.0,0.0,82,0.00,,,0.00,Wunderground v.1.15,2013-05-02 08:49:00,
2013-05-02 04:50:00,46.5,41.3,30.28,WSW,250,0.0,0.0,82,0.00,,,0.00,Wunderground v.1.15,2013-05-02 08:50:00,
2013-05-02 04:54:00,46.2,41.3,30.28,WSW,250,0.0,0.0,83,0.00,,,0.00,Wunderground v.1.15,2013-05-02 08:54:00,
2013-05-02 04:55:00,46.1,41.2,30.28,WSW,250,0.0,0.0,83,0.00,,,0.00,Wunderground v.1.15,2013-05-02 08:55:00,
2013-05-02 04:56:00,46.0,41.1,30.28,WSW,250,0.0,0.0,83,0.00,,,0.00,Wunderground v.1.15,2013-05-02 08:56:00,
2013-05-02 04:58:00,45.9,41.0,30.28,WSW,250,0.0,0.0,83,0.00,,,0.00,Wunderground v.1.15,2013-05-02 08:58:00,
2013-05-02 05:00:00,45.7,41.1,30.28,WSW,250,0.0,0.0,84,0.00,,,0.00,Wunderground v.1.15,2013-05-02 09:00:00,
2013-05-02 05:01:00,45.6,41.0,30.28,WSW,250,0.0,0.0,84,0.00,,,0.00,Wunderground v.1.15,2013-05-02 09:01:00,
2013-05-02 05:06:00,45.4,40.8,30.29,WSW,250,0.0,0.0,84,0.00,,,0.00,Wunderground v.1.15,2013-05-02 09:06:00,
2013-05-02 05:07:00,45.3,40.7,30.29,WSW,250,0.0,0.0,84,0.00,,,0.00,Wunderground v.1.15,2013-05-02 09:07:00,
2013-05-02 05:10:00,45.2,40.7,30.29,WSW,250,0.0,0.0,84,0.00,,,0.00,Wunderground v.1.15,2013-05-02 09:10:00,
2013-05-02 05:11:00,45.1,40.6,30.28,WSW,250,0.0,0.0,84,0.00,,,0.00,Wunderground v.1.15,2013-05-02 09:11:00,
2013-05-02 05:14:00,45.0,40.8,30.28,WSW,250,0.0,0.0,85,0.00,,,0.00,Wunderground v.1.15,2013-05-02 09:14:00,
2013-05-02 05:15:00,45.0,40.8,30.29,WSW,250,0.0,0.0,85,0.00,,,0.00,Wunderground v.1.15,2013-05-02 09:15:00,
2013-05-02 05:17:00,44.9,41.0,30.28,WSW,250,0.0,0.0,86,0.00,,,0.00,Wunderground v.1.15,2013-05-02 09:17:00,
2013-05-02 05:20:00,44.9,41.0,30.28,WSW,250,0.0,0.0,86,0.00,,,0.00,Wunderground v.1.15,2013-05-02 09:20:00,
2013-05-02 05:21:00,44.9,41.3,30.28,WSW,250,0.0,0.0,87,0.00,,,0.00,Wunderground v.1.15,2013-05-02 09:21:00,
2013-05-02 05:24:00,44.9,41.3,30.28,WSW,250,0.0,0.0,87,0.00,,,0.00,Wunderground v.1.15,2013-05-02 09:24:00,
2013-05-02 05:27:00,44.8,41.2,30.28,WSW,250,0.0,0.0,87,0.00,,,0.00,Wunderground v.1.15,2013-05-02 09:27:00,
2013-05-02 05:28:00,44.7,41.1,30.28,WSW,250,0.0,0.0,87,0.00,,,0.00,Wunderground v.1.15,2013-05-02 09:28:00,
2013-05-02 05:30:00,44.6,41.0,30.28,WSW,250,0.0,0.0,87,0.00,,,0.00,Wunderground v.1.15,2013-05-02 09:30:00,
2013-05-02 05:32:00,44.6,41.0,30.28,WSW,250,0.0,0.0,87,0.00,,,0.00,Wunderground v.1.15,2013-05-02 09:32:00,
2013-05-02 05:34:00,44.6,41.0,30.28,WSW,250,0.0,0.0,87,0.00,,,0.00,Wunderground v.1.15,2013-05-02 09:34:00,
2013-05-02 05:35:00,44.6,41.3,30.28,WSW,250,0.0,0.0,88,0.00,,,0.00,Wunderground v.1.15,2013-05-02 09:35:00,
2013-05-02 05:37:00,44.5,41.2,30.28,WSW,250,0.0,0.0,88,0.00,,,0.00,Wunderground v.1.15,2013-05-02 09:37:00,
2013-05-02 05:42:00,44.5,41.2,30.28,NNW,346,0.0,2.0,88,0.00,,,0.00,Wunderground v.1.15,2013-05-02 09:42:00,
2013-05-02 05:44:00,44.5,41.2,30.28,NNW,346,0.0,2.0,88,0.00,,,0.00,Wunderground v.1.15,2013-05-02 09:44:00,
2013-05-02 05:45:00,44.5,41.2,30.29,NNW,347,0.0,2.0,88,0.00,,,0.00,Wunderground v.1.15,2013-05-02 09:45:00,
2013-05-02 05:49:00,44.4,41.1,30.29,NNW,347,0.0,2.0,88,0.00,,,0.00,Wunderground v.1.15,2013-05-02 09:49:00,
2013-05-02 05:50:00,44.4,41.1,30.29,NNW,347,0.0,0.0,88,0.00,,,0.00,Wunderground v.1.15,2013-05-02 09:50:00,
2013-05-02 05:53:00,44.3,41.0,30.29,NNW,347,0.0,0.0,88,0.00,,,0.00,Wunderground v.1.15,2013-05-02 09:53:00,
2013-05-02 05:55:00,44.2,40.9,30.29,NNW,347,0.0,0.0,88,0.00,,,0.00,Wunderground v.1.15,2013-05-02 09:55:00,
2013-05-02 05:58:00,44.2,40.9,30.29,NNW,347,0.0,0.0,88,0.00,,,0.00,Wunderground v.1.15,2013-05-02 09:58:00,
2013-05-02 06:01:00,44.1,40.8,30.29,NNW,347,0.0,4.0,88,0.00,,,0.00,Wunderground v.1.15,2013-05-02 10:01:00,
2013-05-02 06:03:00,44.1,40.8,30.29,NNW,348,0.0,4.0,88,0.00,,,0.00,Wunderground v.1.15,2013-05-02 10:03:00,
2013-05-02 06:04:00,44.1,40.8,30.29,NNW,348,0.0,4.0,88,0.00,,,0.00,Wunderground v.1.15,2013-05-02 10:04:00,
2013-05-02 06:05:00,44.1,40.8,30.29,NNW,348,0.0,4.0,88,0.00,,,0.00,Wunderground v.1.15,2013-05-02 10:05:00,
2013-05-02 06:10:00,44.2,40.9,30.29,North,355,0.0,4.0,88,0.00,,,0.00,Wunderground v.1.15,2013-05-02 10:10:00,
2013-05-02 06:11:00,44.2,41.2,30.29,North,355,0.0,4.0,89,0.00,,,0.00,Wunderground v.1.15,2013-05-02 10:11:00,
2013-05-02 06:12:00,44.3,41.3,30.30,North,355,0.0,4.0,89,0.00,,,0.00,Wunderground v.1.15,2013-05-02 10:12:00,
2013-05-02 06:17:00,44.3,41.3,30.30,ENE,62,0.0,4.0,89,0.00,,,0.00,Wunderground v.1.15,2013-05-02 10:17:00,
2013-05-02 06:18:00,44.3,41.3,30.30,ESE,108,0.0,4.0,89,0.00,,,0.00,Wunderground v.1.15,2013-05-02 10:18:00,
2013-05-02 06:19:00,44.4,41.4,30.30,East,97,0.0,4.0,89,0.00,,,0.00,Wunderground v.1.15,2013-05-02 10:19:00,
2013-05-02 06:20:00,44.4,41.4,30.30,NE,44,0.0,4.0,89,0.00,,,0.00,Wunderground v.1.15,2013-05-02 10:20:00,
2013-05-02 06:22:00,44.5,41.5,30.30,NE,38,0.0,4.0,89,0.00,,,0.00,Wunderground v.1.15,2013-05-02 10:22:00,
2013-05-02 06:25:00,44.5,41.5,30.30,NE,38,1.0,4.0,89,0.00,,,0.00,Wunderground v.1.15,2013-05-02 10:25:00,
2013-05-02 06:27:00,44.6,41.6,30.30,NNE,32,1.0,4.0,89,0.00,,,0.00,Wunderground v.1.15,2013-05-02 10:27:00,
2013-05-02 06:29:00,44.6,41.3,30.30,NNE,32,1.0,4.0,88,0.00,,,0.00,Wunderground v.1.15,2013-05-02 10:29:00,
2013-05-02 06:30:00,44.7,41.4,30.30,NNE,32,1.0,4.0,88,0.00,,,0.00,Wunderground v.1.15,2013-05-02 10:30:00,
2013-05-02 06:31:00,44.6,41.3,30.30,NNE,31,1.0,4.0,88,0.00,,,0.00,Wunderground v.1.15,2013-05-02 10:31:00,
2013-05-02 06:36:00,44.8,41.5,30.30,NNE,32,1.0,4.0,88,0.00,,,0.00,Wunderground v.1.15,2013-05-02 10:36:00,
2013-05-02 06:37:00,44.9,41.6,30.30,North,360,1.0,4.0,88,0.00,,,0.00,Wunderground v.1.15,2013-05-02 10:37:00,
2013-05-02 06:38:00,44.9,41.6,30.30,North,360,1.0,4.0,88,0.00,,,0.00,Wunderground v.1.15,2013-05-02 10:38:00,
2013-05-02 06:39:00,45.0,41.7,30.30,NNE,20,1.0,4.0,88,0.00,,,0.00,Wunderground v.1.15,2013-05-02 10:39:00,
2013-05-02 06:41:00,45.1,41.8,30.30,NNE,17,1.0,4.0,88,0.00,,,0.00,Wunderground v.1.15,2013-05-02 10:41:00,
2013-05-02 06:42:00,45.1,41.8,30.30,NNE,17,1.0,4.0,88,0.00,,,0.00,Wunderground v.1.15,2013-05-02 10:42:00,
2013-05-02 06:43:00,45.2,41.9,30.30,NNE,21,1.0,4.0,88,0.00,,,0.00,Wunderground v.1.15,2013-05-02 10:43:00,
2013-05-02 06:45:00,45.3,42.0,30.30,NNE,24,1.0,4.0,88,0.00,,,0.00,Wunderground v.1.15,2013-05-02 10:45:00,
2013-05-02 06:50:00,45.5,41.9,30.30,NNE,24,1.0,1.0,87,0.00,,,0.00,Wunderground v.1.15,2013-05-02 10:50:00,
2013-05-02 06:51:00,45.6,42.0,30.30,NNE,24,0.0,4.0,87,0.00,,,0.00,Wunderground v.1.15,2013-05-02 10:51:00,
2013-05-02 06:52:00,45.7,42.1,30.30,NNE,24,0.0,4.0,87,0.00,,,0.00,Wunderground v.1.15,2013-05-02 10:52:00,
2013-05-02 06:55:00,45.9,42.2,30.30,NNE,24,0.0,4.0,87,0.00,,,0.00,Wunderground v.1.15,2013-05-02 10:55:00,
2013-05-02 06:56:00,46.0,42.3,30.30,NNE,24,0.0,4.0,87,0.00,,,0.00,Wunderground v.1.15,2013-05-02 10:56:00,
2013-05-02 06:57:00,46.1,42.4,30.30,NNE,24,0.0,4.0,87,0.00,,,0.00,Wunderground v.1.15,2013-05-02 10:57:00,
2013-05-02 07:03:00,46.5,42.8,30.30,NNE,24,0.0,4.0,87,0.00,,,0.00,Wunderground v.1.15,2013-05-02 11:03:00,
2013-05-02 07:04:00,46.6,42.6,30.30,NNE,24,0.0,4.0,86,0.00,,,0.00,Wunderground v.1.15,2013-05-02 11:04:00,
2013-05-02 07:05:00,46.7,42.7,30.31,NNE,24,0.0,4.0,86,0.00,,,0.00,Wunderground v.1.15,2013-05-02 11:05:00,
2013-05-02 07:06:00,46.8,42.8,30.31,NNE,24,0.0,4.0,86,0.00,,,0.00,Wunderground v.1.15,2013-05-02 11:06:00,
2013-05-02 07:11:00,47.1,42.8,30.31,NNE,24,0.0,4.0,85,0.00,,,0.00,Wunderground v.1.15,2013-05-02 11:11:00,
2013-05-02 07:12:00,47.2,43.2,30.31,NNW,337,0.0,4.0,86,0.00,,,0.00,Wunderground v.1.15,2013-05-02 11:12:00,
2013-05-02 07:13:00,47.3,43.3,30.31,East,93,0.0,4.0,86,0.00,,,0.00,Wunderground v.1.15,2013-05-02 11:13:00,
2013-05-02 07:14:00,47.4,43.4,30.31,East,84,0.0,4.0,86,0.00,,,0.00,Wunderground v.1.15,2013-05-02 11:14:00,
2013-05-02 07:16:00,47.6,43.3,30.31,East,84,0.0,4.0,85,0.00,,,0.00,Wunderground v.1.15,2013-05-02 11:16:00,
2013-05-02 07:18:00,47.8,43.5,30.31,East,84,0.0,4.0,85,0.00,,,0.00,Wunderground v.1.15,2013-05-02 11:18:00,
2013-05-02 07:20:00,47.9,43.3,30.31,East,86,0.0,4.0,84,0.00,,,0.00,Wunderground v.1.15,2013-05-02 11:20:00,
2013-05-02 07:23:00,48.1,43.5,30.31,East,86,0.0,4.0,84,0.00,,,0.00,Wunderground v.1.15,2013-05-02 11:23:00,
2013-05-02 07:25:00,48.2,43.6,30.31,East,86,0.0,4.0,84,0.00,,,0.00,Wunderground v.1.15,2013-05-02 11:25:00,
2013-05-02 07:26:00,48.3,43.7,30.31,East,86,0.0,4.0,84,0.00,,,0.00,Wunderground v.1.15,2013-05-02 11:26:00,
2013-05-02 07:29:00,48.7,44.1,30.31,East,86,0.0,4.0,84,0.00,,,0.00,Wunderground v.1.15,2013-05-02 11:29:00,
2013-05-02 07:31:00,48.9,44.0,30.31,East,86,0.0,4.0,83,0.00,,,0.00,Wunderground v.1.15,2013-05-02 11:31:00,
2013-05-02 07:32:00,49.0,44.1,30.31,East,86,0.0,4.0,83,0.00,,,0.00,Wunderground v.1.15,2013-05-02 11:32:00,
2013-05-02 07:33:00,49.1,44.2,30.31,East,86,0.0,4.0,83,0.00,,,0.00,Wunderground v.1.15,2013-05-02 11:33:00,
2013-05-02 07:34:00,49.2,44.3,30.31,East,86,0.0,4.0,83,0.00,,,0.00,Wunderground v.1.15,2013-05-02 11:34:00,
2013-05-02 07:37:00,49.6,44.3,30.32,East,86,0.0,4.0,82,0.00,,,0.00,Wunderground v.1.15,2013-05-02 11:37:00,
2013-05-02 07:39:00,49.7,44.1,30.32,East,86,0.0,4.0,81,0.00,,,0.00,Wunderground v.1.15,2013-05-02 11:39:00,
2013-05-02 07:40:00,49.8,44.2,30.32,East,86,0.0,4.0,81,0.00,,,0.00,Wunderground v.1.15,2013-05-02 11:40:00,
2013-05-02 07:42:00,50.0,44.4,30.31,East,86,0.0,4.0,81,0.00,,,0.00,Wunderground v.1.15,2013-05-02 11:42:00,
2013-05-02 07:43:00,50.1,44.5,30.32,East,86,0.0,4.0,81,0.00,,,0.00,Wunderground v.1.15,2013-05-02 11:43:00,
2013-05-02 07:44:00,50.2,44.3,30.31,East,86,0.0,4.0,80,0.00,,,0.00,Wunderground v.1.15,2013-05-02 11:44:00,
2013-05-02 07:46:00,50.4,44.5,30.31,East,86,0.0,4.0,80,0.00,,,0.00,Wunderground v.1.15,2013-05-02 11:46:00,
2013-05-02 07:48:00,50.5,44.2,30.31,East,86,0.0,4.0,79,0.00,,,0.00,Wunderground v.1.15,2013-05-02 11:48:00,
2013-05-02 07:50:00,50.7,44.4,30.31,East,86,0.0,4.0,79,0.00,,,0.00,Wunderground v.1.15,2013-05-02 11:50:00,
2013-05-02 07:51:00,50.8,44.5,30.31,ESE,118,0.0,4.0,79,0.00,,,0.00,Wunderground v.1.15,2013-05-02 11:51:00,
2013-05-02 07:53:00,50.9,44.6,30.31,ESE,119,0.0,4.0,79,0.00,,,0.00,Wunderground v.1.15,2013-05-02 11:53:00,
2013-05-02 07:55:00,51.0,44.4,30.31,ESE,119,0.0,4.0,78,0.00,,,0.00,Wunderground v.1.15,2013-05-02 11:55:00,
2013-05-02 07:56:00,51.2,44.6,30.31,ESE,119,0.0,4.0,78,0.00,,,0.00,Wunderground v.1.15,2013-05-02 11:56:00,
2013-05-02 07:58:00,51.3,44.7,30.31,ESE,119,0.0,4.0,78,0.00,,,0.00,Wunderground v.1.15,2013-05-02 11:58:00,
2013-05-02 08:01:00,51.6,44.6,30.31,ESE,119,0.0,1.0,77,0.00,,,0.00,Wunderground v.1.15,2013-05-02 12:01:00,
2013-05-02 08:03:00,51.8,44.8,30.31,ESE,121,0.0,1.0,77,0.00,,,0.00,Wunderground v.1.15,2013-05-02 12:03:00,
2013-05-02 08:05:00,52.0,44.7,30.31,ESE,121,0.0,1.0,76,0.00,,,0.00,Wunderground v.1.15,2013-05-02 12:05:00,
2013-05-02 08:06:00,52.1,44.8,30.31,ESE,120,0.0,1.0,76,0.00,,,0.00,Wunderground v.1.15,2013-05-02 12:06:00,
2013-05-02 08:07:00,52.2,44.9,30.31,ESE,120,0.0,1.0,76,0.00,,,0.00,Wunderground v.1.15,2013-05-02 12:07:00,
2013-05-02 08:08:00,52.3,45.0,30.31,ESE,115,0.0,1.0,76,0.00,,,0.00,Wunderground v.1.15,2013-05-02 12:08:00,
2013-05-02 08:09:00,52.4,44.7,30.31,ESE,115,0.0,1.0,75,0.00,,,0.00,Wunderground v.1.15,2013-05-02 12:09:00,
2013-05-02 08:12:00,52.6,44.5,30.31,ESE,116,0.0,1.0,74,0.00,,,0.00,Wunderground v.1.15,2013-05-02 12:12:00,
2013-05-02 08:13:00,52.7,44.6,30.31,ESE,115,0.0,1.0,74,0.00,,,0.00,Wunderground v.1.15,2013-05-02 12:13:00,
2013-05-02 08:15:00,53.0,44.6,30.31,ESE,115,0.0,1.0,73,0.00,,,0.00,Wunderground v.1.15,2013-05-02 12:15:00,
2013-05-02 08:16:00,53.1,44.7,30.31,ESE,115,0.0,1.0,73,0.00,,,0.00,Wunderground v.1.15,2013-05-02 12:16:00,
2013-05-02 08:18:00,53.3,44.5,30.31,ESE,115,0.0,1.0,72,0.00,,,0.00,Wunderground v.1.15,2013-05-02 12:18:00,
2013-05-02 08:20:00,53.6,44.4,30.31,ESE,115,0.0,1.0,71,0.00,,,0.00,Wunderground v.1.15,2013-05-02 12:20:00,
2013-05-02 08:21:00,53.6,44.4,30.31,ESE,115,0.0,1.0,71,0.00,,,0.00,Wunderground v.1.15,2013-05-02 12:21:00,
2013-05-02 08:24:00,53.8,44.2,30.31,ESE,117,0.0,1.0,70,0.00,,,0.00,Wunderground v.1.15,2013-05-02 12:24:00,
2013-05-02 08:25:00,53.8,44.2,30.31,ESE,117,0.0,1.0,70,0.00,,,0.00,Wunderground v.1.15,2013-05-02 12:25:00,
2013-05-02 08:26:00,53.9,44.3,30.31,ESE,117,0.0,1.0,70,0.00,,,0.00,Wunderground v.1.15,2013-05-02 12:26:00,
2013-05-02 08:28:00,53.9,44.0,30.31,ESE,116,0.0,1.0,69,0.00,,,0.00,Wunderground v.1.15,2013-05-02 12:28:00,
2013-05-02 08:29:00,54.0,44.1,30.31,ESE,116,0.0,1.0,69,0.00,,,0.00,Wunderground v.1.15,2013-05-02 12:29:00,
2013-05-02 08:30:00,54.0,45.2,30.31,ESE,113,0.0,4.0,72,0.00,,,0.00,Wunderground v.1.15,2013-05-02 12:30:00,
2013-05-02 08:34:00,54.1,43.8,30.31,ESE,113,0.0,4.0,68,0.00,,,0.00,Wunderground v.1.15,2013-05-02 12:34:00,
2013-05-02 08:35:00,54.1,43.4,30.31,ESE,113,0.0,4.0,67,0.00,,,0.00,Wunderground v.1.15,2013-05-02 12:35:00,
2013-05-02 08:36:00,54.2,43.9,30.31,ESE,118,0.0,4.0,68,0.00,,,0.00,Wunderground v.1.15,2013-05-02 12:36:00,
2013-05-02 08:39:00,54.4,44.1,30.31,ESE,118,0.0,4.0,68,0.00,,,0.00,Wunderground v.1.15,2013-05-02 12:39:00,
2013-05-02 08:41:00,54.7,44.7,30.31,ESE,117,0.0,1.0,69,0.00,,,0.00,Wunderground v.1.15,2013-05-02 12:41:00,
2013-05-02 08:42:00,54.9,44.5,30.31,ESE,117,0.0,1.0,68,0.00,,,0.00,Wunderground v.1.15,2013-05-02 12:42:00,
2013-05-02 08:45:00,55.3,44.9,30.31,ESE,117,0.0,1.0,68,0.00,,,0.00,Wunderground v.1.15,2013-05-02 12:45:00,
2013-05-02 08:50:00,55.9,44.3,30.31,ESE,109,0.0,1.0,65,0.00,,,0.00,Wunderground v.1.15,2013-05-02 12:50:00,
2013-05-02 08:51:00,56.1,44.5,30.31,ESE,102,0.0,1.0,65,0.00,,,0.00,Wunderground v.1.15,2013-05-02 12:51:00,
2013-05-02 08:52:00,56.3,44.7,30.31,East,92,0.0,2.0,65,0.00,,,0.00,Wunderground v.1.15,2013-05-02 12:52:00,
2013-05-02 08:53:00,56.5,44.9,30.31,East,91,0.0,2.0,65,0.00,,,0.00,Wunderground v.1.15,2013-05-02 12:53:00,
2013-05-02 08:55:00,56.8,44.7,30.31,East,91,0.0,2.0,64,0.00,,,0.00,Wunderground v.1.15,2013-05-02 12:55:00,
2013-05-02 08:57:00,57.1,44.6,30.31,East,83,0.0,3.0,63,0.00,,,0.00,Wunderground v.1.15,2013-05-02 12:57:00,
2013-05-02 08:58:00,57.3,44.4,30.31,East,82,0.0,3.0,62,0.00,,,0.00,Wunderground v.1.15,2013-05-02 12:58:00,
2013-05-02 09:01:00,57.6,45.1,30.31,ESE,117,0.0,1.0,63,0.00,,,0.00,Wunderground v.1.15,2013-05-02 13:01:00,
2013-05-02 09:02:00,57.7,44.8,30.30,ESE,117,0.0,1.0,62,0.00,,,0.00,Wunderground v.1.15,2013-05-02 13:02:00,
2013-05-02 09:04:00,58.0,44.2,30.30,NE,41,0.0,1.0,60,0.00,,,0.00,Wunderground v.1.15,2013-05-02 13:04:00,
2013-05-02 09:05:00,58.1,44.3,30.30,NE,40,0.0,1.0,60,0.00,,,0.00,Wunderground v.1.15,2013-05-02 13:05:00,
2013-05-02 09:07:00,58.4,45.0,30.30,NE,53,0.0,1.0,61,0.00,,,0.00,Wunderground v.1.15,2013-05-02 13:07:00,
2013-05-02 09:09:00,58.7,45.3,30.30,ENE,61,0.0,1.0,61,0.00,,,0.00,Wunderground v.1.15,2013-05-02 13:09:00,
2013-05-02 09:10:00,58.7,45.3,30.30,ENE,61,0.0,1.0,61,0.00,,,0.00,Wunderground v.1.15,2013-05-02 13:10:00,
2013-05-02 09:13:00,59.0,45.1,30.30,ENE,76,0.0,1.0,60,0.00,,,0.00,Wunderground v.1.15,2013-05-02 13:13:00,
2013-05-02 09:14:00,59.1,45.2,30.30,ENE,77,0.0,1.0,60,0.00,,,0.00,Wunderground v.1.15,2013-05-02 13:14:00,
2013-05-02 09:15:00,59.2,44.9,30.30,ENE,77,0.0,1.0,59,0.00,,,0.00,Wunderground v.1.15,2013-05-02 13:15:00,
2013-05-02 09:19:00,59.9,45.5,30.30,ENE,61,0.0,2.0,59,0.00,,,0.00,Wunderground v.1.15,2013-05-02 13:19:00,
2013-05-02 09:20:00,60.0,45.6,30.30,ENE,69,0.0,1.0,59,0.00,,,0.00,Wunderground v.1.15,2013-05-02 13:20:00,
2013-05-02 09:22:00,60.1,45.3,30.30,East,88,0.0,1.0,58,0.00,,,0.00,Wunderground v.1.15,2013-05-02 13:22:00,
2013-05-02 09:25:00,60.3,45.0,30.30,ESE,109,0.0,1.0,57,0.00,,,0.00,Wunderground v.1.15,2013-05-02 13:25:00,
2013-05-02 09:27:00,60.5,46.1,30.30,South,188,0.0,1.0,59,0.00,,,0.00,Wunderground v.1.15,2013-05-02 13:27:00,
2013-05-02 09:29:00,60.7,44.9,30.30,North,11,0.0,1.0,56,0.00,,,0.00,Wunderground v.1.15,2013-05-02 13:29:00,
2013-05-02 09:33:00,61.1,45.7,30.30,NNE,28,0.0,1.0,57,0.00,,,0.00,Wunderground v.1.15,2013-05-02 13:33:00,
2013-05-02 09:35:00,61.3,45.5,30.30,NNE,29,0.0,1.0,56,0.00,,,0.00,Wunderground v.1.15,2013-05-02 13:35:00,
2013-05-02 09:39:00,61.7,45.4,30.30,NNE,32,0.0,1.0,55,0.00,,,0.00,Wunderground v.1.15,2013-05-02 13:39:00,
2013-05-02 09:41:00,62.0,45.2,30.30,NNE,33,0.0,1.0,54,0.00,,,0.00,Wunderground v.1.15,2013-05-02 13:41:00,
2013-05-02 09:44:00,62.5,45.6,30.30,NNE,26,0.0,1.0,54,0.00,,,0.00,Wunderground v.1.15,2013-05-02 13:44:00,
2013-05-02 09:49:00,63.1,45.7,30.30,NE,48,0.0,3.0,53,0.00,,,0.00,Wunderground v.1.15,2013-05-02 13:49:00,
2013-05-02 09:50:00,63.2,46.3,30.29,NE,47,0.0,1.0,54,0.00,,,0.00,Wunderground v.1.15,2013-05-02 13:50:00,
2013-05-02 09:51:00,63.4,46.0,30.29,NNE,24,0.0,2.0,53,0.00,,,0.00,Wunderground v.1.15,2013-05-02 13:51:00,
2013-05-02 09:56:00,63.9,45.9,30.29,NNE,33,1.0,2.0,52,0.00,,,0.00,Wunderground v.1.15,2013-05-02 13:56:00,
2013-05-02 09:57:00,64.0,45.5,30.29,NE,34,1.0,2.0,51,0.00,,,0.00,Wunderground v.1.15,2013-05-02 13:57:00,
2013-05-02 09:58:00,64.0,45.0,30.29,NNE,33,1.0,2.0,50,0.00,,,0.00,Wunderground v.1.15,2013-05-02 13:58:00,
2013-05-02 10:00:00,64.3,45.3,30.29,NNE,33,1.0,1.0,50,0.00,,,0.00,Wunderground v.1.15,2013-05-02 14:00:00,
2013-05-02 10:01:00,64.4,45.3,30.29,NNE,33,0.0,4.0,50,0.00,,,0.00,Wunderground v.1.15,2013-05-02 14:01:00,
2013-05-02 10:02:00,64.5,45.4,30.29,NNE,33,0.0,4.0,50,0.00,,,0.00,Wunderground v.1.15,2013-05-02 14:02:00,
2013-05-02 10:03:00,64.7,45.1,30.29,NE,34,0.0,4.0,49,0.00,,,0.00,Wunderground v.1.15,2013-05-02 14:03:00,
2013-05-02 10:05:00,64.9,45.8,30.29,NNE,30,0.0,4.0,50,0.00,,,0.00,Wunderground v.1.15,2013-05-02 14:05:00,
2013-05-02 10:07:00,65.1,46.0,30.29,NE,44,0.0,4.0,50,0.00,,,0.00,Wunderground v.1.15,2013-05-02 14:07:00,
2013-05-02 10:08:00,65.2,46.1,30.29,ENE,57,0.0,4.0,50,0.00,,,0.00,Wunderground v.1.15,2013-05-02 14:08:00,
2013-05-02 10:09:00,65.4,46.3,30.29,NE,56,0.0,4.0,50,0.00,,,0.00,Wunderground v.1.15,2013-05-02 14:09:00,
2013-05-02 10:11:00,65.8,46.1,30.29,NE,55,0.0,4.0,49,0.00,,,0.00,Wunderground v.1.15,2013-05-02 14:11:00,
2013-05-02 10:14:00,66.4,46.1,30.29,NE,55,0.0,4.0,48,0.00,,,0.00,Wunderground v.1.15,2013-05-02 14:14:00,
2013-05-02 10:15:00,66.6,46.3,30.29,NE,55,0.0,4.0,48,0.00,,,0.00,Wunderground v.1.15,2013-05-02 14:15:00,
2013-05-02 10:17:00,67.2,46.3,30.29,NE,53,0.0,4.0,47,0.00,,,0.00,Wunderground v.1.15,2013-05-02 14:17:00,
2013-05-02 10:18:00,67.3,45.2,30.29,NE,53,0.0,4.0,45,0.00,,,0.00,Wunderground v.1.15,2013-05-02 14:18:00,
2013-05-02 10:19:00,67.4,45.9,30.29,NE,53,0.0,4.0,46,0.00,,,0.00,Wunderground v.1.15,2013-05-02 14:19:00,
2013-05-02 10:20:00,67.5,46.0,30.29,NE,53,0.0,4.0,46,0.00,,,0.00,Wunderground v.1.15,2013-05-02 14:20:00,
2013-05-02 10:24:00,67.9,44.6,30.29,East,84,0.0,4.0,43,0.00,,,0.00,Wunderground v.1.15,2013-05-02 14:24:00,
2013-05-02 10:25:00,68.0,45.3,30.29,East,84,0.0,4.0,44,0.00,,,0.00,Wunderground v.1.15,2013-05-02 14:25:00,
2013-05-02 10:26:00,68.2,46.0,30.29,East,84,0.0,4.0,45,0.00,,,0.00,Wunderground v.1.15,2013-05-02 14:26:00,
2013-05-02 10:28:00,68.4,45.0,30.29,East,85,0.0,4.0,43,0.00,,,0.00,Wunderground v.1.15,2013-05-02 14:28:00,
2013-05-02 10:30:00,68.7,44.0,30.29,East,92,0.0,4.0,41,0.00,,,0.00,Wunderground v.1.15,2013-05-02 14:30:00,
2013-05-02 10:31:00,68.7,43.4,30.29,East,92,0.0,4.0,40,0.00,,,0.00,Wunderground v.1.15,2013-05-02 14:31:00,
2013-05-02 10:33:00,68.8,43.5,30.29,East,93,0.0,4.0,40,0.00,,,0.00,Wunderground v.1.15,2013-05-02 14:33:00,
2013-05-02 10:34:00,68.9,42.9,30.29,East,93,0.0,4.0,39,0.00,,,0.00,Wunderground v.1.15,2013-05-02 14:34:00,
2013-05-02 10:36:00,69.3,44.6,30.29,ESE,109,0.0,4.0,41,0.00,,,0.00,Wunderground v.1.15,2013-05-02 14:36:00,
2013-05-02 10:37:00,69.5,45.4,30.29,ESE,116,0.0,4.0,42,0.00,,,0.00,Wunderground v.1.15,2013-05-02 14:37:00,
2013-05-02 10:40:00,70.1,44.6,30.29,SE,127,0.0,4.0,40,0.00,,,0.00,Wunderground v.1.15,2013-05-02 14:40:00,
2013-05-02 10:41:00,70.2,44.1,30.29,SE,127,0.0,4.0,39,0.00,,,0.00,Wunderground v.1.15,2013-05-02 14:41:00,
2013-05-02 10:42:00,70.4,44.3,30.29,SE,127,0.0,4.0,39,0.00,,,0.00,Wunderground v.1.15,2013-05-02 14:42:00,
2013-05-02 10:44:00,70.6,44.4,30.29,SE,139,0.0,4.0,39,0.00,,,0.00,Wunderground v.1.15,2013-05-02 14:44:00,
2013-05-02 10:46:00,70.6,43.7,30.28,ESE,111,1.0,4.0,38,0.00,,,0.00,Wunderground v.1.15,2013-05-02 14:46:00,
2013-05-02 10:47:00,70.5,43.7,30.28,ESE,111,1.0,4.0,38,0.00,,,0.00,Wunderground v.1.15,2013-05-02 14:47:00,
2013-05-02 10:48:00,70.4,44.9,30.28,ESE,111,1.0,4.0,40,0.00,,,0.00,Wunderground v.1.15,2013-05-02 14:48:00,
2013-05-02 10:49:00,70.4,45.6,30.28,ESE,111,1.0,4.0,41,0.00,,,0.00,Wunderground v.1.15,2013-05-02 14:49:00,
2013-05-02 10:50:00,70.4,44.3,30.28,ESE,111,1.0,1.0,39,0.00,,,0.00,Wunderground v.1.15,2013-05-02 14:50:00,
2013-05-02 10:52:00,70.4,43.6,30.28,ESE,110,2.0,4.0,38,0.00,,,0.00,Wunderground v.1.15,2013-05-02 14:52:00,
2013-05-02 10:54:00,70.4,44.3,30.28,ESE,119,1.0,6.0,39,0.00,,,0.00,Wunderground v.1.15,2013-05-02 14:54:00,
2013-05-02 10:55:00,70.4,44.3,30.28,ESE,121,2.0,6.0,39,0.00,,,0.00,Wunderground v.1.15,2013-05-02 14:55:00,
2013-05-02 10:57:00,70.4,44.3,30.28,ESE,117,2.0,6.0,39,0.00,,,0.00,Wunderground v.1.15,2013-05-02 14:57:00,
2013-05-02 11:00:00,70.6,43.7,30.28,East,95,1.0,1.0,38,0.00,,,0.00,Wunderground v.1.15,2013-05-02 15:00:00,
2013-05-02 11:02:00,70.7,44.5,30.28,East,94,1.0,5.0,39,0.00,,,0.00,Wunderground v.1.15,2013-05-02 15:02:00,
2013-05-02 11:03:00,70.9,45.4,30.28,East,96,1.0,5.0,40,0.00,,,0.00,Wunderground v.1.15,2013-05-02 15:03:00,
2013-05-02 11:04:00,71.0,43.4,30.28,East,96,1.0,5.0,37,0.00,,,0.00,Wunderground v.1.15,2013-05-02 15:04:00,
2013-05-02 11:07:00,71.3,44.4,30.28,East,96,0.0,5.0,38,0.00,,,0.00,Wunderground v.1.15,2013-05-02 15:07:00,
2013-05-02 11:09:00,71.7,45.4,30.28,East,98,0.0,5.0,39,0.00,,,0.00,Wunderground v.1.15,2013-05-02 15:09:00,
2013-05-02 11:10:00,71.8,44.1,30.27,East,98,0.0,5.0,37,0.00,,,0.00,Wunderground v.1.15,2013-05-02 15:10:00,
2013-05-02 11:14:00,72.3,43.1,30.27,ENE,78,0.0,5.0,35,0.00,,,0.00,Wunderground v.1.15,2013-05-02 15:14:00,
2013-05-02 11:16:00,72.5,43.3,30.27,ENE,78,0.0,5.0,35,0.00,,,0.00,Wunderground v.1.15,2013-05-02 15:16:00,
2013-05-02 11:18:00,72.7,43.5,30.27,ESE,109,0.0,5.0,35,0.00,,,0.00,Wunderground v.1.15,2013-05-02 15:18:00,
2013-05-02 11:20:00,73.0,45.2,30.27,ESE,109,0.0,5.0,37,0.00,,,0.00,Wunderground v.1.15,2013-05-02 15:20:00,
2013-05-02 11:21:00,73.1,43.1,30.27,ENE,73,0.0,5.0,34,0.00,,,0.00,Wunderground v.1.15,2013-05-02 15:21:00,
2013-05-02 11:23:00,73.1,40.7,30.27,ENE,73,1.0,5.0,31,0.00,,,0.00,Wunderground v.1.15,2013-05-02 15:23:00,
2013-05-02 11:24:00,73.2,42.4,30.27,East,82,1.0,5.0,33,0.00,,,0.00,Wunderground v.1.15,2013-05-02 15:24:00,
2013-05-02 11:28:00,73.5,41.8,30.27,East,98,0.0,5.0,32,0.00,,,0.00,Wunderground v.1.15,2013-05-02 15:28:00,
2013-05-02 11:31:00,74.2,41.6,30.27,SSE,150,1.0,5.0,31,0.00,,,0.00,Wunderground v.1.15,2013-05-02 15:31:00,
2013-05-02 11:33:00,74.6,40.2,30.27,SSE,150,0.0,5.0,29,0.00,,,0.00,Wunderground v.1.15,2013-05-02 15:33:00,
2013-05-02 11:34:00,74.8,41.3,30.26,SSE,150,0.0,5.0,30,0.00,,,0.00,Wunderground v.1.15,2013-05-02 15:34:00,
2013-05-02 11:36:00,75.0,42.3,30.26,SSE,153,0.0,5.0,31,0.00,,,0.00,Wunderground v.1.15,2013-05-02 15:36:00,
2013-05-02 11:37:00,75.1,41.5,30.26,SE,138,0.0,5.0,30,0.00,,,0.00,Wunderground v.1.15,2013-05-02 15:37:00,
2013-05-02 11:42:00,75.8,40.4,30.26,SE,130,0.0,5.0,28,0.00,,,0.00,Wunderground v.1.15,2013-05-02 15:42:00,
2013-05-02 11:43:00,76.0,40.5,30.26,SE,130,0.0,5.0,28,0.00,,,0.00,Wunderground v.1.15,2013-05-02 15:43:00,
2013-05-02 11:44:00,76.0,39.6,30.26,SE,130,0.0,5.0,27,0.00,,,0.00,Wunderground v.1.15,2013-05-02 15:44:00,
2013-05-02 11:45:00,76.1,39.7,30.26,SE,130,0.0,5.0,27,0.00,,,0.00,Wunderground v.1.15,2013-05-02 15:45:00,
2013-05-02 11:48:00,76.3,37.9,30.26,SE,130,0.0,5.0,25,0.00,,,0.00,Wunderground v.1.15,2013-05-02 15:48:00,
2013-05-02 11:49:00,76.5,37.0,30.26,SE,130,0.0,5.0,24,0.00,,,0.00,Wunderground v.1.15,2013-05-02 15:49:00,
2013-05-02 11:50:00,76.6,37.1,30.26,SE,130,0.0,5.0,24,0.00,,,0.00,Wunderground v.1.15,2013-05-02 15:50:00,
2013-05-02 11:55:00,76.9,39.4,30.25,SE,128,0.0,5.0,26,0.00,,,0.00,Wunderground v.1.15,2013-05-02 15:55:00,
2013-05-02 11:56:00,76.9,36.3,30.25,SE,128,0.0,5.0,23,0.00,,,0.00,Wunderground v.1.15,2013-05-02 15:56:00,
2013-05-02 11:57:00,76.9,36.3,30.25,SE,128,0.0,5.0,23,0.00,,,0.00,Wunderground v.1.15,2013-05-02 15:57:00,
2013-05-02 11:59:00,77.1,36.4,30.25,SE,128,0.0,5.0,23,0.00,,,0.00,Wunderground v.1.15,2013-05-02 15:59:00,
2013-05-02 12:02:00,76.9,36.3,30.25,SSE,159,1.0,5.0,23,0.00,,,0.00,Wunderground v.1.15,2013-05-02 16:02:00,
2013-05-02 12:05:00,76.7,35.0,30.25,South,175,2.0,6.0,22,0.00,,,0.00,Wunderground v.1.15,2013-05-02 16:05:00,
2013-05-02 12:06:00,76.6,36.0,30.25,South,175,3.0,6.0,23,0.00,,,0.00,Wunderground v.1.15,2013-05-02 16:06:00,
2013-05-02 12:08:00,76.7,37.2,30.25,South,175,3.0,6.0,24,0.00,,,0.00,Wunderground v.1.15,2013-05-02 16:08:00,
2013-05-02 12:09:00,76.9,38.4,30.25,South,174,3.0,6.0,25,0.00,,,0.00,Wunderground v.1.15,2013-05-02 16:09:00,
2013-05-02 12:10:00,77.0,37.4,30.25,South,169,3.0,3.0,24,0.00,,,0.00,Wunderground v.1.15,2013-05-02 16:10:00,
2013-05-02 12:14:00,77.5,36.8,30.25,SSE,166,2.0,4.0,23,0.00,,,0.00,Wunderground v.1.15,2013-05-02 16:14:00,
2013-05-02 12:15:00,77.6,36.8,30.25,SE,132,1.0,4.0,23,0.00,,,0.00,Wunderground v.1.15,2013-05-02 16:15:00,
2013-05-02 12:16:00,77.6,35.7,30.25,East,85,1.0,5.0,22,0.00,,,0.00,Wunderground v.1.15,2013-05-02 16:16:00,
2013-05-02 12:19:00,77.3,35.5,30.24,ESE,123,2.0,5.0,22,0.00,,,0.00,Wunderground v.1.15,2013-05-02 16:19:00,
2013-05-02 12:22:00,77.3,39.7,30.24,ESE,123,2.0,4.0,26,0.00,,,0.00,Wunderground v.1.15,2013-05-02 16:22:00,
2013-05-02 12:23:00,77.5,39.9,30.24,SE,140,2.0,5.0,26,0.00,,,0.00,Wunderground v.1.15,2013-05-02 16:23:00,
2013-05-02 12:24:00,77.5,37.8,30.24,SSE,148,2.0,5.0,24,0.00,,,0.00,Wunderground v.1.15,2013-05-02 16:24:00,
2013-05-02 12:29:00,77.1,37.5,30.24,SSE,159,3.0,9.0,24,0.00,,,0.00,Wunderground v.1.15,2013-05-02 16:29:00,
2013-05-02 12:30:00,76.9,37.3,30.24,SSE,167,4.0,5.0,24,0.00,,,0.00,Wunderground v.1.15,2013-05-02 16:30:00,
2013-05-02 12:31:00,76.8,36.2,30.24,SSE,167,4.0,5.0,23,0.00,,,0.00,Wunderground v.1.15,2013-05-02 16:31:00,
2013-05-02 12:34:00,76.9,37.3,30.24,SSW,203,3.0,5.0,24,0.00,,,0.00,Wunderground v.1.15,2013-05-02 16:34:00,
2013-05-02 12:37:00,76.9,36.3,30.23,WSW,254,3.0,5.0,23,0.00,,,0.00,Wunderground v.1.15,2013-05-02 16:37:00,
2013-05-02 12:38:00,76.9,38.4,30.24,West,265,3.0,5.0,25,0.00,,,0.00,Wunderground v.1.15,2013-05-02 16:38:00,
2013-05-02 12:40:00,76.9,38.4,30.23,NW,325,2.0,4.0,25,0.00,,,0.00,Wunderground v.1.15,2013-05-02 16:40:00,
2013-05-02 12:42:00,77.2,38.6,30.24,North,355,2.0,4.0,25,0.00,,,0.00,Wunderground v.1.15,2013-05-02 16:42:00,
2013-05-02 12:44:00,77.5,37.8,30.23,NE,35,3.0,4.0,24,0.00,,,0.00,Wunderground v.1.15,2013-05-02 16:44:00,
2013-05-02 12:45:00,77.6,36.8,30.23,NE,35,2.0,4.0,23,0.00,,,0.00,Wunderground v.1.15,2013-05-02 16:45:00,
2013-05-02 12:48:00,78.1,40.4,30.23,NE,36,2.0,4.0,26,0.00,,,0.00,Wunderground v.1.15,2013-05-02 16:48:00,
2013-05-02 12:50:00,78.5,37.6,30.23,NE,36,1.0,1.0,23,0.00,,,0.00,Wunderground v.1.15,2013-05-02 16:50:00,
2013-05-02 12:51:00,78.7,40.9,30.23,NE,36,1.0,4.0,26,0.00,,,0.00,Wunderground v.1.15,2013-05-02 16:51:00,
2013-05-02 12:53:00,79.1,38.1,30.23,North,360,1.0,5.0,23,0.00,,,0.00,Wunderground v.1.15,2013-05-02 16:53:00,
2013-05-02 12:55:00,79.3,36.0,30.23,North,355,1.0,5.0,21,0.00,,,0.00,Wunderground v.1.15,2013-05-02 16:55:00,
2013-05-02 12:58:00,79.5,37.3,30.23,North,355,1.0,5.0,22,0.00,,,0.00,Wunderground v.1.15,2013-05-02 16:58:00,
2013-05-02 12:59:00,79.6,37.4,30.22,North,355,1.0,5.0,22,0.00,,,0.00,Wunderground v.1.15,2013-05-02 16:59:00,
2013-05-02 13:05:00,80.2,41.2,30.22,NNE,26,0.0,6.0,25,0.00,,,0.00,Wunderground v.1.15,2013-05-02 17:05:00,
2013-05-02 13:06:00,80.1,36.6,30.22,NNE,31,1.0,6.0,21,0.00,,,0.00,Wunderground v.1.15,2013-05-02 17:06:00,
2013-05-02 13:08:00,80.2,36.7,30.22,NNE,30,1.0,6.0,21,0.00,,,0.00,Wunderground v.1.15,2013-05-02 17:08:00,
2013-05-02 13:11:00,80.4,39.2,30.22,NNE,28,1.0,6.0,23,0.00,,,0.00,Wunderground v.1.15,2013-05-02 17:11:00,
2013-05-02 13:12:00,80.5,39.3,30.22,NNE,33,1.0,6.0,23,0.00,,,0.00,Wunderground v.1.15,2013-05-02 17:12:00,
2013-05-02 13:13:00,80.7,39.4,30.22,NE,36,1.0,6.0,23,0.00,,,0.00,Wunderground v.1.15,2013-05-02 17:13:00,
2013-05-02 13:17:00,80.8,37.2,30.21,NNE,26,1.0,6.0,21,0.00,,,0.00,Wunderground v.1.15,2013-05-02 17:17:00,
2013-05-02 13:18:00,80.8,39.5,30.22,NNE,23,1.0,6.0,23,0.00,,,0.00,Wunderground v.1.15,2013-05-02 17:18:00,
2013-05-02 13:20:00,80.9,37.3,30.21,NNE,30,1.0,1.0,21,0.00,,,0.00,Wunderground v.1.15,2013-05-02 17:20:00,
2013-05-02 13:23:00,81.1,39.8,30.21,SE,132,1.0,6.0,23,0.00,,,0.00,Wunderground v.1.15,2013-05-02 17:23:00,
2013-05-02 13:24:00,81.1,37.5,30.21,ESE,109,1.0,6.0,21,0.00,,,0.00,Wunderground v.1.15,2013-05-02 17:24:00,
2013-05-02 13:25:00,81.2,38.7,30.21,ENE,69,1.0,6.0,22,0.00,,,0.00,Wunderground v.1.15,2013-05-02 17:25:00,
2013-05-02 13:26:00,81.2,37.5,30.21,ENE,69,1.0,6.0,21,0.00,,,0.00,Wunderground v.1.15,2013-05-02 17:26:00,
2013-05-02 13:32:00,81.5,37.8,30.21,NE,38,1.0,6.0,21,0.00,,,0.00,Wunderground v.1.15,2013-05-02 17:32:00,
2013-05-02 13:33:00,81.4,37.7,30.21,NNE,19,2.0,6.0,21,0.00,,,0.00,Wunderground v.1.15,2013-05-02 17:33:00,
2013-05-02 13:37:00,81.1,39.8,30.21,NW,326,2.0,6.0,23,0.00,,,0.00,Wunderground v.1.15,2013-05-02 17:37:00,
2013-05-02 13:39:00,81.3,39.9,30.21,NNW,338,3.0,6.0,23,0.00,,,0.00,Wunderground v.1.15,2013-05-02 17:39:00,
2013-05-02 13:40:00,81.3,39.9,30.20,NNW,340,3.0,8.0,23,0.00,,,0.00,Wunderground v.1.15,2013-05-02 17:40:00,
2013-05-02 13:43:00,81.1,37.5,30.20,NNE,22,3.0,8.0,21,0.00,,,0.00,Wunderground v.1.15,2013-05-02 17:43:00,
2013-05-02 13:46:00,80.8,37.2,30.20,NNE,13,3.0,9.0,21,0.00,,,0.00,Wunderground v.1.15,2013-05-02 17:46:00,
2013-05-02 13:47:00,80.9,38.5,30.20,North,11,3.0,9.0,22,0.00,,,0.00,Wunderground v.1.15,2013-05-02 17:47:00,
2013-05-02 13:49:00,81.0,38.6,30.20,ESE,117,3.0,9.0,22,0.00,,,0.00,Wunderground v.1.15,2013-05-02 17:49:00,
2013-05-02 13:54:00,81.4,38.9,30.20,ENE,65,2.0,6.0,22,0.00,,,0.00,Wunderground v.1.15,2013-05-02 17:54:00,
2013-05-02 13:55:00,81.4,41.1,30.20,North,11,1.0,6.0,24,0.00,,,0.00,Wunderground v.1.15,2013-05-02 17:55:00,
2013-05-02 13:56:00,81.4,38.9,30.20,NE,38,2.0,6.0,22,0.00,,,0.00,Wunderground v.1.15,2013-05-02 17:56:00,
2013-05-02 14:00:00,81.5,37.8,30.20,North,351,2.0,10.0,21,0.00,,,0.00,Wunderground v.1.15,2013-05-02 18:00:00,
2013-05-02 14:01:00,81.5,40.1,30.20,North,5,2.0,10.0,23,0.00,,,0.00,Wunderground v.1.15,2013-05-02 18:01:00,
2013-05-02 14:03:00,81.4,37.7,30.20,ENE,57,3.0,10.0,21,0.00,,,0.00,Wunderground v.1.15,2013-05-02 18:03:00,
2013-05-02 14:05:00,81.4,37.7,30.20,ENE,69,2.0,10.0,21,0.00,,,0.00,Wunderground v.1.15,2013-05-02 18:05:00,
2013-05-02 14:06:00,81.5,43.3,30.20,NNW,343,2.0,10.0,26,0.00,,,0.00,Wunderground v.1.15,2013-05-02 18:06:00,
2013-05-02 14:08:00,81.8,39.2,30.20,North,11,2.0,10.0,22,0.00,,,0.00,Wunderground v.1.15,2013-05-02 18:08:00,
2013-05-02 14:11:00,82.0,38.2,30.19,North,355,2.0,4.0,21,0.00,,,0.00,Wunderground v.1.15,2013-05-02 18:11:00,
2013-05-02 14:13:00,82.1,38.3,30.19,North,350,2.0,10.0,21,0.00,,,0.00,Wunderground v.1.15,2013-05-02 18:13:00,
2013-05-02 14:14:00,82.0,37.0,30.19,NE,37,3.0,10.0,20,0.00,,,0.00,Wunderground v.1.15,2013-05-02 18:14:00,
2013-05-02 14:16:00,81.9,38.1,30.19,ESE,123,3.0,10.0,21,0.00,,,0.00,Wunderground v.1.15,2013-05-02 18:16:00,
2013-05-02 14:17:00,81.9,36.9,30.19,ESE,118,3.0,10.0,20,0.00,,,0.00,Wunderground v.1.15,2013-05-02 18:17:00,
2013-05-02 14:20:00,82.4,38.5,30.19,NNE,32,2.0,2.0,21,0.00,,,0.00,Wunderground v.1.15,2013-05-02 18:20:00,
2013-05-02 14:23:00,82.7,38.8,30.19,North,350,2.0,10.0,21,0.00,,,0.00,Wunderground v.1.15,2013-05-02 18:23:00,
2013-05-02 14:25:00,82.6,37.5,30.19,North,355,2.0,10.0,20,0.00,,,0.00,Wunderground v.1.15,2013-05-02 18:25:00,
2013-05-02 14:28:00,82.4,38.5,30.19,NW,312,3.0,10.0,21,0.00,,,0.00,Wunderground v.1.15,2013-05-02 18:28:00,
2013-05-02 14:29:00,82.5,42.1,30.19,NE,47,3.0,10.0,24,0.00,,,0.00,Wunderground v.1.15,2013-05-02 18:29:00,
2013-05-02 14:31:00,82.6,37.5,30.19,North,360,4.0,10.0,20,0.00,,,0.00,Wunderground v.1.15,2013-05-02 18:31:00,
2013-05-02 14:34:00,82.5,38.6,30.19,SE,144,3.0,10.0,21,0.00,,,0.00,Wunderground v.1.15,2013-05-02 18:34:00,
2013-05-02 14:36:00,82.6,39.9,30.18,NE,36,3.0,10.0,22,0.00,,,0.00,Wunderground v.1.15,2013-05-02 18:36:00,
2013-05-02 14:37:00,82.7,40.0,30.18,NW,313,3.0,10.0,22,0.00,,,0.00,Wunderground v.1.15,2013-05-02 18:37:00,
2013-05-02 14:39:00,82.8,38.9,30.18,NNE,15,2.0,10.0,21,0.00,,,0.00,Wunderground v.1.15,2013-05-02 18:39:00,
2013-05-02 14:40:00,82.8,38.9,30.18,NNE,13,2.0,10.0,21,0.00,,,0.00,Wunderground v.1.15,2013-05-02 18:40:00,
2013-05-02 14:41:00,82.9,38.9,30.18,NNE,24,2.0,10.0,21,0.00,,,0.00,Wunderground v.1.15,2013-05-02 18:41:00,
2013-05-02 14:44:00,83.0,39.0,30.18,ENE,63,2.0,10.0,21,0.00,,,0.00,Wunderground v.1.15,2013-05-02 18:44:00,
2013-05-02 14:45:00,83.0,39.0,30.18,NNW,346,2.0,10.0,21,0.00,,,0.00,Wunderground v.1.15,2013-05-02 18:45:00,
2013-05-02 14:49:00,83.0,39.0,30.18,NNE,24,3.0,10.0,21,0.00,,,0.00,Wunderground v.1.15,2013-05-02 18:49:00,
2013-05-02 14:51:00,83.2,37.9,30.18,NE,51,3.0,10.0,20,0.00,,,0.00,Wunderground v.1.15,2013-05-02 18:51:00,
2013-05-02 14:52:00,83.2,37.9,30.18,ENE,57,3.0,10.0,20,0.00,,,0.00,Wunderground v.1.15,2013-05-02 18:52:00,
2013-05-02 14:53:00,83.2,39.2,30.17,SE,134,2.0,10.0,21,0.00,,,0.00,Wunderground v.1.15,2013-05-02 18:53:00,
2013-05-02 14:54:00,83.3,39.3,30.17,SE,134,2.0,10.0,21,0.00,,,0.00,Wunderground v.1.15,2013-05-02 18:54:00,
2013-05-02 14:56:00,83.6,41.9,30.17,SE,141,1.0,10.0,23,0.00,,,0.00,Wunderground v.1.15,2013-05-02 18:56:00,
2013-05-02 14:58:00,83.8,39.7,30.17,SE,146,1.0,10.0,21,0.00,,,0.00,Wunderground v.1.15,2013-05-02 18:58:00,
2013-05-02 15:00:00,84.1,38.7,30.17,NNE,17,1.0,1.0,20,0.00,,,0.00,Wunderground v.1.15,2013-05-02 19:00:00,
2013-05-02 15:01:00,84.1,38.7,30.17,NNE,26,1.0,9.0,20,0.00,,,0.00,Wunderground v.1.15,2013-05-02 19:01:00,
2013-05-02 15:04:00,84.1,39.9,30.17,SE,146,1.0,9.0,21,0.00,,,0.00,Wunderground v.1.15,2013-05-02 19:04:00,
2013-05-02 15:05:00,84.0,39.9,30.17,East,92,2.0,9.0,21,0.00,,,0.00,Wunderground v.1.15,2013-05-02 19:05:00,
2013-05-02 15:08:00,83.8,39.7,30.17,NNE,26,2.0,10.0,21,0.00,,,0.00,Wunderground v.1.15,2013-05-02 19:08:00,
2013-05-02 15:09:00,83.7,38.4,30.17,NNE,29,3.0,10.0,20,0.00,,,0.00,Wunderground v.1.15,2013-05-02 19:09:00,
2013-05-02 15:10:00,83.5,36.9,30.17,NNE,26,3.0,3.0,19,0.00,,,0.00,Wunderground v.1.15,2013-05-02 19:10:00,
2013-05-02 15:11:00,83.4,39.4,30.17,NE,36,3.0,9.0,21,0.00,,,0.00,Wunderground v.1.15,2013-05-02 19:11:00,
2013-05-02 15:12:00,83.2,39.2,30.17,NE,34,3.0,9.0,21,0.00,,,0.00,Wunderground v.1.15,2013-05-02 19:12:00,
2013-05-02 15:17:00,82.3,39.6,30.17,North,5,2.0,9.0,22,0.00,,,0.00,Wunderground v.1.15,2013-05-02 19:17:00,
2013-05-02 15:18:00,82.2,37.1,30.17,SSE,155,2.0,9.0,20,0.00,,,0.00,Wunderground v.1.15,2013-05-02 19:18:00,
2013-05-02 15:19:00,82.1,38.3,30.17,SSE,157,2.0,9.0,21,0.00,,,0.00,Wunderground v.1.15,2013-05-02 19:19:00,
2013-05-02 15:23:00,82.0,42.7,30.16,SSE,159,0.0,9.0,25,0.00,,,0.00,Wunderground v.1.15,2013-05-02 19:23:00,
2013-05-02 15:24:00,82.0,41.6,30.16,NE,35,0.0,9.0,24,0.00,,,0.00,Wunderground v.1.15,2013-05-02 19:24:00,
2013-05-02 15:26:00,81.9,38.1,30.16,NNE,22,1.0,9.0,21,0.00,,,0.00,Wunderground v.1.15,2013-05-02 19:26:00,
2013-05-02 15:29:00,81.7,39.1,30.16,North,355,0.0,9.0,22,0.00,,,0.00,Wunderground v.1.15,2013-05-02 19:29:00,
2013-05-02 15:30:00,81.6,39.1,30.16,North,350,1.0,1.0,22,0.00,,,0.00,Wunderground v.1.15,2013-05-02 19:30:00,
2013-05-02 15:33:00,81.4,37.7,30.16,ENE,65,1.0,9.0,21,0.00,,,0.00,Wunderground v.1.15,2013-05-02 19:33:00,
2013-05-02 15:34:00,81.4,40.0,30.16,East,87,1.0,9.0,23,0.00,,,0.00,Wunderground v.1.15,2013-05-02 19:34:00,
2013-05-02 15:35:00,81.4,38.9,30.16,North,349,1.0,9.0,22,0.00,,,0.00,Wunderground v.1.15,2013-05-02 19:35:00,
2013-05-02 15:40:00,81.5,40.1,30.16,SE,145,1.0,9.0,23,0.00,,,0.00,Wunderground v.1.15,2013-05-02 19:40:00,
2013-05-02 15:41:00,81.5,41.2,30.16,WSW,237,1.0,9.0,24,0.00,,,0.00,Wunderground v.1.15,2013-05-02 19:41:00,
2013-05-02 15:43:00,81.6,40.2,30.15,South,182,1.0,9.0,23,0.00,,,0.00,Wunderground v.1.15,2013-05-02 19:43:00,
2013-05-02 15:44:00,81.7,38.0,30.15,SSW,193,1.0,9.0,21,0.00,,,0.00,Wunderground v.1.15,2013-05-02 19:44:00,
2013-05-02 15:46:00,82.0,39.4,30.15,WSW,251,1.0,9.0,22,0.00,,,0.00,Wunderground v.1.15,2013-05-02 19:46:00,
2013-05-02 15:49:00,82.5,39.8,30.15,SSE,150,1.0,9.0,22,0.00,,,0.00,Wunderground v.1.15,2013-05-02 19:49:00,
2013-05-02 15:50:00,82.6,39.9,30.15,SSE,151,1.0,1.0,22,0.00,,,0.00,Wunderground v.1.15,2013-05-02 19:50:00,
2013-05-02 15:51:00,82.7,41.1,30.15,South,179,0.0,9.0,23,0.00,,,0.00,Wunderground v.1.15,2013-05-02 19:51:00,
2013-05-02 15:53:00,82.9,38.9,30.15,NNE,32,1.0,9.0,21,0.00,,,0.00,Wunderground v.1.15,2013-05-02 19:53:00,
2013-05-02 15:57:00,83.2,37.9,30.15,NNE,30,0.0,9.0,20,0.00,,,0.00,Wunderground v.1.15,2013-05-02 19:57:00,
2013-05-02 15:58:00,83.3,38.0,30.15,NNE,31,0.0,9.0,20,0.00,,,0.00,Wunderground v.1.15,2013-05-02 19:58:00,
2013-05-02 16:00:00,83.6,39.5,30.15,SE,138,0.0,11.0,21,0.00,,,0.00,Wunderground v.1.15,2013-05-02 20:00:00,
2013-05-02 16:01:00,83.6,40.7,30.15,SSE,149,1.0,11.0,22,0.00,,,0.00,Wunderground v.1.15,2013-05-02 20:01:00,
2013-05-02 16:02:00,83.7,42.0,30.15,ESE,110,1.0,11.0,23,0.00,,,0.00,Wunderground v.1.15,2013-05-02 20:02:00,
2013-05-02 16:03:00,83.6,38.3,30.15,East,94,1.0,11.0,20,0.00,,,0.00,Wunderground v.1.15,2013-05-02 20:03:00,
2013-05-02 16:05:00,83.5,38.2,30.15,ESE,109,1.0,11.0,20,0.00,,,0.00,Wunderground v.1.15,2013-05-02 20:05:00,
2013-05-02 16:09:00,83.5,38.2,30.15,East,101,1.0,11.0,20,0.00,,,0.00,Wunderground v.1.15,2013-05-02 20:09:00,
2013-05-02 16:11:00,83.4,39.4,30.15,NE,46,1.0,11.0,21,0.00,,,0.00,Wunderground v.1.15,2013-05-02 20:11:00,
2013-05-02 16:14:00,83.0,39.0,30.14,North,11,1.0,11.0,21,0.00,,,0.00,Wunderground v.1.15,2013-05-02 20:14:00,
2013-05-02 16:15:00,82.9,37.7,30.14,NNE,19,1.0,11.0,20,0.00,,,0.00,Wunderground v.1.15,2013-05-02 20:15:00,
2013-05-02 16:18:00,82.4,38.5,30.14,NE,52,2.0,11.0,21,0.00,,,0.00,Wunderground v.1.15,2013-05-02 20:18:00,
2013-05-02 16:19:00,82.3,39.6,30.14,East,90,2.0,11.0,22,0.00,,,0.00,Wunderground v.1.15,2013-05-02 20:19:00,
2013-05-02 16:20:00,82.1,39.5,30.14,NE,47,2.0,2.0,22,0.00,,,0.00,Wunderground v.1.15,2013-05-02 20:20:00,
2013-05-02 16:22:00,82.0,40.5,30.14,SE,129,1.0,11.0,23,0.00,,,0.00,Wunderground v.1.15,2013-05-02 20:22:00,
2013-05-02 16:27:00,81.7,39.1,30.14,NE,52,0.0,11.0,22,0.00,,,0.00,Wunderground v.1.15,2013-05-02 20:27:00,
2013-05-02 16:28:00,81.6,39.1,30.14,NE,39,0.0,11.0,22,0.00,,,0.00,Wunderground v.1.15,2013-05-02 20:28:00,
2013-05-02 16:30:00,81.4,38.9,30.14,WNW,299,1.0,11.0,22,0.00,,,0.00,Wunderground v.1.15,2013-05-02 20:30:00,
2013-05-02 16:33:00,81.0,40.8,30.14,NW,316,1.0,11.0,24,0.00,,,0.00,Wunderground v.1.15,2013-05-02 20:33:00,
2013-05-02 16:34:00,80.9,39.6,30.14,NW,318,1.0,11.0,23,0.00,,,0.00,Wunderground v.1.15,2013-05-02 20:34:00,
2013-05-02 16:37:00,80.7,39.4,30.14,ENE,57,1.0,11.0,23,0.00,,,0.00,Wunderground v.1.15,2013-05-02 20:37:00,
2013-05-02 16:38:00,80.7,39.4,30.14,ENE,57,1.0,11.0,23,0.00,,,0.00,Wunderground v.1.15,2013-05-02 20:38:00,
2013-05-02 16:40:00,80.6,39.4,30.14,ENE,62,0.0,11.0,23,0.00,,,0.00,Wunderground v.1.15,2013-05-02 20:40:00,
2013-05-02 16:42:00,80.5,40.4,30.14,East,91,0.0,11.0,24,0.00,,,0.00,Wunderground v.1.15,2013-05-02 20:42:00,
2013-05-02 16:43:00,80.3,38.0,30.14,East,98,0.0,11.0,22,0.00,,,0.00,Wunderground v.1.15,2013-05-02 20:43:00,
2013-05-02 16:44:00,80.3,38.0,30.14,East,96,1.0,11.0,22,0.00,,,0.00,Wunderground v.1.15,2013-05-02 20:44:00,
2013-05-02 16:49:00,79.9,37.6,30.14,ESE,119,2.0,11.0,22,0.00,,,0.00,Wunderground v.1.15,2013-05-02 20:49:00,
2013-05-02 16:50:00,79.8,37.6,30.14,SE,132,2.0,2.0,22,0.00,,,0.00,Wunderground v.1.15,2013-05-02 20:50:00,
2013-05-02 16:51:00,79.7,38.6,30.14,SE,131,2.0,11.0,23,0.00,,,0.00,Wunderground v.1.15,2013-05-02 20:51:00,
2013-05-02 16:54:00,79.7,40.8,30.14,ESE,121,2.0,11.0,25,0.00,,,0.00,Wunderground v.1.15,2013-05-02 20:54:00,
2013-05-02 16:56:00,79.7,38.6,30.14,ESE,121,1.0,11.0,23,0.00,,,0.00,Wunderground v.1.15,2013-05-02 20:56:00,
2013-05-02 16:57:00,79.7,38.6,30.14,ESE,122,1.0,11.0,23,0.00,,,0.00,Wunderground v.1.15,2013-05-02 20:57:00,
2013-05-02 16:59:00,79.7,38.6,30.14,ESE,122,1.0,11.0,23,0.00,,,0.00,Wunderground v.1.15,2013-05-02 20:59:00,
2013-05-02 17:00:00,79.7,40.8,30.14,ESE,122,0.0,7.0,25,0.00,,,0.00,Wunderground v.1.15,2013-05-02 21:00:00,
2013-05-02 17:02:00,79.7,38.6,30.14,ESE,122,0.0,7.0,23,0.00,,,0.00,Wunderground v.1.15,2013-05-02 21:02:00,
2013-05-02 17:06:00,79.7,40.8,30.14,East,88,0.0,7.0,25,0.00,,,0.00,Wunderground v.1.15,2013-05-02 21:06:00,
2013-05-02 17:09:00,79.6,40.7,30.14,SE,143,0.0,7.0,25,0.00,,,0.00,Wunderground v.1.15,2013-05-02 21:09:00,
2013-05-02 17:11:00,79.6,39.6,30.14,SE,140,0.0,7.0,24,0.00,,,0.00,Wunderground v.1.15,2013-05-02 21:11:00,
2013-05-02 17:13:00,79.5,39.5,30.14,NNE,19,0.0,7.0,24,0.00,,,0.00,Wunderground v.1.15,2013-05-02 21:13:00,
2013-05-02 17:14:00,79.5,39.5,30.14,NNE,21,0.0,7.0,24,0.00,,,0.00,Wunderground v.1.15,2013-05-02 21:14:00,
2013-05-02 17:15:00,79.4,39.4,30.14,East,88,0.0,7.0,24,0.00,,,0.00,Wunderground v.1.15,2013-05-02 21:15:00,
2013-05-02 17:18:00,79.3,39.4,30.14,ENE,75,0.0,7.0,24,0.00,,,0.00,Wunderground v.1.15,2013-05-02 21:18:00,
2013-05-02 17:21:00,79.2,40.3,30.14,East,84,0.0,7.0,25,0.00,,,0.00,Wunderground v.1.15,2013-05-02 21:21:00,
2013-05-02 17:25:00,79.0,40.2,30.14,ENE,74,0.0,7.0,25,0.00,,,0.00,Wunderground v.1.15,2013-05-02 21:25:00,
2013-05-02 17:26:00,78.9,39.0,30.14,ESE,107,1.0,8.0,24,0.00,,,0.00,Wunderground v.1.15,2013-05-02 21:26:00,
2013-05-02 17:28:00,78.7,38.9,30.14,SE,131,2.0,8.0,24,0.00,,,0.00,Wunderground v.1.15,2013-05-02 21:28:00,
2013-05-02 17:31:00,78.2,39.5,30.14,SE,130,5.0,8.0,25,0.00,,,0.00,Wunderground v.1.15,2013-05-02 21:31:00,
2013-05-02 17:32:00,78.1,39.4,30.14,East,88,5.0,8.0,25,0.00,,,0.00,Wunderground v.1.15,2013-05-02 21:32:00,
2013-05-02 17:34:00,77.9,40.2,30.14,East,96,7.0,8.0,26,0.00,,,0.00,Wunderground v.1.15,2013-05-02 21:34:00,
2013-05-02 17:35:00,77.8,40.2,30.14,East,92,7.0,8.0,26,0.00,,,0.00,Wunderground v.1.15,2013-05-02 21:35:00,
2013-05-02 17:39:00,77.3,39.7,30.14,SE,134,7.0,9.0,26,0.00,,,0.00,Wunderground v.1.15,2013-05-02 21:39:00,
2013-05-02 17:40:00,77.2,39.6,30.14,ESE,119,7.0,8.0,26,0.00,,,0.00,Wunderground v.1.15,2013-05-02 21:40:00,
2013-05-02 17:41:00,77.1,39.6,30.14,NW,317,7.0,9.0,26,0.00,,,0.00,Wunderground v.1.15,2013-05-02 21:41:00,
2013-05-02 17:43:00,76.9,42.2,30.14,NW,317,7.0,11.0,29,0.00,,,0.00,Wunderground v.1.15,2013-05-02 21:43:00,
2013-05-02 17:46:00,76.2,42.5,30.15,ENE,75,8.0,14.0,30,0.00,,,0.00,Wunderground v.1.15,2013-05-02 21:46:00,
2013-05-02 17:47:00,75.8,42.1,30.15,ESE,121,8.0,18.0,30,0.00,,,0.00,Wunderground v.1.15,2013-05-02 21:47:00,
2013-05-02 17:52:00,74.3,43.3,30.15,ESE,103,11.0,11.0,33,0.00,,,0.00,Wunderground v.1.15,2013-05-02 21:52:00,
2013-05-02 17:53:00,74.1,43.1,30.15,East,93,10.0,11.0,33,0.00,,,0.00,Wunderground v.1.15,2013-05-02 21:53:00,
2013-05-02 17:55:00,73.7,43.6,30.15,NNW,345,11.0,13.0,34,0.00,,,0.00,Wunderground v.1.15,2013-05-02 21:55:00,
2013-05-02 17:56:00,73.5,44.2,30.15,East,90,11.0,13.0,35,0.00,,,0.00,Wunderground v.1.15,2013-05-02 21:56:00,
2013-05-02 17:57:00,73.3,44.0,30.15,ESE,111,11.0,23.0,35,0.00,,,0.00,Wunderground v.1.15,2013-05-02 21:57:00,
2013-05-02 17:58:00,73.0,43.7,30.16,NNE,30,11.0,23.0,35,0.00,,,0.00,Wunderground v.1.15,2013-05-02 21:58:00,
2013-05-02 18:02:00,72.0,43.6,30.16,ENE,71,12.0,25.0,36,0.00,,,0.00,Wunderground v.1.15,2013-05-02 22:02:00,
2013-05-02 18:03:00,71.8,44.1,30.16,ESE,111,12.0,25.0,37,0.00,,,0.00,Wunderground v.1.15,2013-05-02 22:03:00,
2013-05-02 18:04:00,71.7,44.0,30.16,ENE,65,12.0,25.0,37,0.00,,,0.00,Wunderground v.1.15,2013-05-02 22:04:00,
2013-05-02 18:05:00,71.5,43.8,30.16,SSE,150,11.0,25.0,37,0.00,,,0.00,Wunderground v.1.15,2013-05-02 22:05:00,
2013-05-02 18:07:00,71.2,43.6,30.16,East,84,11.0,25.0,37,0.00,,,0.00,Wunderground v.1.15,2013-05-02 22:07:00,
2013-05-02 18:08:00,70.9,43.3,30.16,NNW,338,12.0,25.0,37,0.00,,,0.00,Wunderground v.1.15,2013-05-02 22:08:00,
2013-05-02 18:10:00,70.5,43.7,30.16,SE,138,12.0,25.0,38,0.00,,,0.00,Wunderground v.1.15,2013-05-02 22:10:00,
2013-05-02 18:14:00,70.0,43.9,30.17,East,87,10.0,25.0,39,0.00,,,0.00,Wunderground v.1.15,2013-05-02 22:14:00,
2013-05-02 18:16:00,69.7,43.6,30.17,ESE,115,11.0,25.0,39,0.00,,,0.00,Wunderground v.1.15,2013-05-02 22:16:00,
2013-05-02 18:17:00,69.5,43.4,30.17,SE,139,10.0,25.0,39,0.00,,,0.00,Wunderground v.1.15,2013-05-02 22:17:00,
2013-05-02 18:19:00,69.2,43.2,30.18,North,9,8.0,25.0,39,0.00,,,0.00,Wunderground v.1.15,2013-05-02 22:19:00,
2013-05-02 18:20:00,69.1,43.1,30.18,NW,318,7.0,7.0,39,0.00,,,0.00,Wunderground v.1.15,2013-05-02 22:20:00,
2013-05-02 18:22:00,68.9,42.9,30.18,SSE,157,6.0,25.0,39,0.00,,,0.00,Wunderground v.1.15,2013-05-02 22:22:00,
2013-05-02 18:25:00,68.6,42.6,30.18,NE,42,5.0,25.0,39,0.00,,,0.00,Wunderground v.1.15,2013-05-02 22:25:00,
2013-05-02 18:27:00,68.3,42.4,30.18,NNE,26,5.0,25.0,39,0.00,,,0.00,Wunderground v.1.15,2013-05-02 22:27:00,
2013-05-02 18:28:00,68.3,42.4,30.18,North,360,5.0,25.0,39,0.00,,,0.00,Wunderground v.1.15,2013-05-02 22:28:00,
2013-05-02 18:30:00,68.2,43.6,30.18,North,351,5.0,5.0,41,0.00,,,0.00,Wunderground v.1.15,2013-05-02 22:30:00,
2013-05-02 18:34:00,67.9,43.3,30.19,NNW,342,6.0,25.0,41,0.00,,,0.00,Wunderground v.1.15,2013-05-02 22:34:00,
2013-05-02 18:37:00,67.5,43.6,30.19,NE,40,5.0,25.0,42,0.00,,,0.00,Wunderground v.1.15,2013-05-02 22:37:00,
2013-05-02 18:38:00,67.4,42.9,30.19,East,79,5.0,25.0,41,0.00,,,0.00,Wunderground v.1.15,2013-05-02 22:38:00,
2013-05-02 18:39:00,67.2,42.7,30.20,NNE,30,5.0,25.0,41,0.00,,,0.00,Wunderground v.1.15,2013-05-02 22:39:00,
2013-05-02 18:42:00,66.6,42.8,30.20,NNE,24,7.0,25.0,42,0.00,,,0.00,Wunderground v.1.15,2013-05-02 22:42:00,
2013-05-02 18:44:00,66.2,43.0,30.20,North,350,6.0,25.0,43,0.00,,,0.00,Wunderground v.1.15,2013-05-02 22:44:00,
2013-05-02 18:45:00,66.1,42.9,30.20,North,360,7.0,25.0,43,0.00,,,0.00,Wunderground v.1.15,2013-05-02 22:45:00,
2013-05-02 18:48:00,65.8,42.7,30.20,NNW,336,6.0,25.0,43,0.00,,,0.00,Wunderground v.1.15,2013-05-02 22:48:00,
2013-05-02 18:50:00,65.4,41.7,30.21,North,5,7.0,7.0,42,0.00,,,0.00,Wunderground v.1.15,2013-05-02 22:50:00,
2013-05-02 18:51:00,65.3,41.6,30.21,NE,45,7.0,25.0,42,0.00,,,0.00,Wunderground v.1.15,2013-05-02 22:51:00,
2013-05-02 18:53:00,65.0,40.7,30.21,NE,34,6.0,25.0,41,0.00,,,0.00,Wunderground v.1.15,2013-05-02 22:53:00,
2013-05-02 18:54:00,64.9,40.6,30.21,North,5,6.0,25.0,41,0.00,,,0.00,Wunderground v.1.15,2013-05-02 22:54:00,
2013-05-02 18:56:00,64.7,40.4,30.21,North,355,7.0,25.0,41,0.00,,,0.00,Wunderground v.1.15,2013-05-02 22:56:00,
2013-05-02 18:57:00,64.5,40.3,30.21,NNE,28,7.0,25.0,41,0.00,,,0.00,Wunderground v.1.15,2013-05-02 22:57:00,
2013-05-02 18:59:00,64.4,40.8,30.21,NNE,19,6.0,25.0,42,0.00,,,0.00,Wunderground v.1.15,2013-05-02 22:59:00,
2013-05-02 19:04:00,63.8,39.6,30.22,NNE,27,6.0,14.0,41,0.00,,,0.00,Wunderground v.1.15,2013-05-02 23:04:00,
2013-05-02 19:05:00,63.7,39.5,30.21,North,11,6.0,14.0,41,0.00,,,0.00,Wunderground v.1.15,2013-05-02 23:05:00,
2013-05-02 19:07:00,63.5,39.4,30.22,NNE,13,7.0,14.0,41,0.00,,,0.00,Wunderground v.1.15,2013-05-02 23:07:00,
2013-05-02 19:09:00,63.3,39.2,30.22,NE,55,7.0,14.0,41,0.00,,,0.00,Wunderground v.1.15,2013-05-02 23:09:00,
2013-05-02 19:10:00,63.2,39.7,30.22,North,355,6.0,6.0,42,0.00,,,0.00,Wunderground v.1.15,2013-05-02 23:10:00,
2013-05-02 19:14:00,62.7,39.3,30.23,NNE,28,6.0,14.0,42,0.00,,,0.00,Wunderground v.1.15,2013-05-02 23:14:00,
2013-05-02 19:16:00,62.5,39.7,30.23,North,5,5.0,14.0,43,0.00,,,0.00,Wunderground v.1.15,2013-05-02 23:16:00,
2013-05-02 19:18:00,62.2,39.4,30.23,North,350,5.0,14.0,43,0.00,,,0.00,Wunderground v.1.15,2013-05-02 23:18:00,
2013-05-02 19:20:00,61.9,39.1,30.24,ESE,113,5.0,14.0,43,0.00,,,0.00,Wunderground v.1.15,2013-05-02 23:20:00,
2013-05-02 19:21:00,61.8,39.1,30.24,ENE,63,5.0,14.0,43,0.00,,,0.00,Wunderground v.1.15,2013-05-02 23:21:00,
2013-05-02 19:23:00,61.6,38.9,30.24,ENE,57,4.0,14.0,43,0.00,,,0.00,Wunderground v.1.15,2013-05-02 23:23:00,
2013-05-02 19:27:00,61.4,39.3,30.24,NNE,26,4.0,14.0,44,0.00,,,0.00,Wunderground v.1.15,2013-05-02 23:27:00,
2013-05-02 19:28:00,61.3,39.2,30.24,ENE,58,4.0,14.0,44,0.00,,,0.00,Wunderground v.1.15,2013-05-02 23:28:00,
2013-05-02 19:31:00,61.2,39.1,30.25,ENE,63,3.0,14.0,44,0.00,,,0.00,Wunderground v.1.15,2013-05-02 23:31:00,
2013-05-02 19:32:00,61.2,39.1,30.25,North,9,2.0,14.0,44,0.00,,,0.00,Wunderground v.1.15,2013-05-02 23:32:00,
2013-05-02 19:36:00,60.9,38.2,30.25,ENE,59,3.0,14.0,43,0.00,,,0.00,Wunderground v.1.15,2013-05-02 23:36:00,
2013-05-02 19:37:00,60.8,38.7,30.25,NE,52,3.0,14.0,44,0.00,,,0.00,Wunderground v.1.15,2013-05-02 23:37:00,
2013-05-02 19:38:00,60.8,38.7,30.25,NNW,348,3.0,14.0,44,0.00,,,0.00,Wunderground v.1.15,2013-05-02 23:38:00,
2013-05-02 19:40:00,60.6,38.6,30.25,East,84,3.0,3.0,44,0.00,,,0.00,Wunderground v.1.15,2013-05-02 23:40:00,
2013-05-02 19:42:00,60.4,38.4,30.25,SE,144,3.0,14.0,44,0.00,,,0.00,Wunderground v.1.15,2013-05-02 23:42:00,
2013-05-02 19:43:00,60.3,38.3,30.26,NW,325,4.0,14.0,44,0.00,,,0.00,Wunderground v.1.15,2013-05-02 23:43:00,
2013-05-02 19:46:00,60.1,37.5,30.26,NE,51,3.0,14.0,43,0.00,,,0.00,Wunderground v.1.15,2013-05-02 23:46:00,
2013-05-02 19:47:00,60.0,36.8,30.26,NE,52,3.0,14.0,42,0.00,,,0.00,Wunderground v.1.15,2013-05-02 23:47:00,
2013-05-02 19:48:00,60.0,37.4,30.26,ESE,103,3.0,14.0,43,0.00,,,0.00,Wunderground v.1.15,2013-05-02 23:48:00,
2013-05-02 19:49:00,59.9,37.3,30.26,NW,317,4.0,14.0,43,0.00,,,0.00,Wunderground v.1.15,2013-05-02 23:49:00,
2013-05-02 19:53:00,59.6,37.1,30.27,ENE,77,4.0,14.0,43,0.00,,,0.00,Wunderground v.1.15,2013-05-02 23:53:00,
2013-05-02 19:54:00,59.6,37.1,30.27,ESE,121,4.0,14.0,43,0.00,,,0.00,Wunderground v.1.15,2013-05-02 23:54:00,
2013-05-02 19:55:00,59.5,37.0,30.27,North,360,4.0,14.0,43,0.00,,,0.00,Wunderground v.1.15,2013-05-02 23:55:00,
2013-05-02 19:56:00,59.5,37.0,30.27,WNW,302,4.0,14.0,43,0.00,,,0.00,Wunderground v.1.15,2013-05-02 23:56:00,
2013-05-02 19:57:00,59.4,36.9,30.27,NNE,29,4.0,14.0,43,0.00,,,0.00,Wunderground v.1.15,2013-05-02 23:57:00,
2013-05-02 20:00:00,59.2,36.7,30.28,NW,312,4.0,14.0,43,0.00,,,0.00,Wunderground v.1.15,2013-05-03 00:00:00,
2013-05-02 20:02:00,59.1,36.6,30.28,NNE,22,4.0,14.0,43,0.00,,,0.00,Wunderground v.1.15,2013-05-03 00:02:00,
2013-05-02 20:03:00,59.1,37.2,30.28,West,273,3.0,14.0,44,0.00,,,0.00,Wunderground v.1.15,2013-05-03 00:03:00,
2013-05-02 20:05:00,58.9,37.0,30.28,NW,304,3.0,14.0,44,0.00,,,0.00,Wunderground v.1.15,2013-05-03 00:05:00,
2013-05-02 20:06:00,58.9,37.0,30.28,WNW,294,2.0,14.0,44,0.00,,,0.00,Wunderground v.1.15,2013-05-03 00:06:00,
2013-05-02 20:08:00,58.7,36.8,30.29,NNE,28,2.0,14.0,44,0.00,,,0.00,Wunderground v.1.15,2013-05-03 00:08:00,
2013-05-02 20:09:00,58.7,36.8,30.29,NW,311,2.0,14.0,44,0.00,,,0.00,Wunderground v.1.15,2013-05-03 00:09:00,
2013-05-02 20:10:00,58.6,36.7,30.29,WNW,301,3.0,14.0,44,0.00,,,0.00,Wunderground v.1.15,2013-05-03 00:10:00,
2013-05-02 20:11:00,58.6,36.7,30.29,ESE,111,3.0,14.0,44,0.00,,,0.00,Wunderground v.1.15,2013-05-03 00:11:00,
2013-05-02 20:15:00,58.4,37.1,30.29,NNW,328,4.0,14.0,45,0.00,,,0.00,Wunderground v.1.15,2013-05-03 00:15:00,
2013-05-02 20:16:00,58.3,37.0,30.29,NNW,336,4.0,14.0,45,0.00,,,0.00,Wunderground v.1.15,2013-05-03 00:16:00,
2013-05-02 20:17:00,58.3,37.0,30.29,NNW,332,4.0,14.0,45,0.00,,,0.00,Wunderground v.1.15,2013-05-03 00:17:00,
2013-05-02 20:20:00,58.2,36.9,30.30,West,271,4.0,4.0,45,0.00,,,0.00,Wunderground v.1.15,2013-05-03 00:20:00,
2013-05-02 20:21:00,58.1,36.9,30.30,ESE,108,3.0,14.0,45,0.00,,,0.00,Wunderground v.1.15,2013-05-03 00:21:00,
2013-05-02 20:22:00,58.1,36.9,30.30,ESE,105,3.0,14.0,45,0.00,,,0.00,Wunderground v.1.15,2013-05-03 00:22:00,
2013-05-02 20:23:00,57.9,36.7,30.30,ESE,117,4.0,14.0,45,0.00,,,0.00,Wunderground v.1.15,2013-05-03 00:23:00,
2013-05-02 20:26:00,57.7,36.5,30.30,ESE,106,7.0,14.0,45,0.00,,,0.00,Wunderground v.1.15,2013-05-03 00:26:00,
2013-05-02 20:29:00,57.5,36.9,30.31,SE,133,9.0,14.0,46,0.00,,,0.00,Wunderground v.1.15,2013-05-03 00:29:00,
2013-05-02 20:30:00,57.5,36.9,30.31,ESE,107,9.0,9.0,46,0.00,,,0.00,Wunderground v.1.15,2013-05-03 00:30:00,
2013-05-02 20:32:00,57.5,37.4,30.31,ENE,78,9.0,14.0,47,0.00,,,0.00,Wunderground v.1.15,2013-05-03 00:32:00,
2013-05-02 20:33:00,57.5,37.4,30.31,ENE,78,8.0,14.0,47,0.00,,,0.00,Wunderground v.1.15,2013-05-03 00:33:00,
2013-05-02 20:36:00,57.5,37.9,30.31,North,355,4.0,14.0,48,0.00,,,0.00,Wunderground v.1.15,2013-05-03 00:36:00,
2013-05-02 20:38:00,57.5,37.9,30.31,North,360,2.0,14.0,48,0.00,,,0.00,Wunderground v.1.15,2013-05-03 00:38:00,
2013-05-02 20:39:00,57.5,37.9,30.32,NNW,331,2.0,14.0,48,0.00,,,0.00,Wunderground v.1.15,2013-05-03 00:39:00,
2013-05-02 20:41:00,57.3,37.8,30.32,East,86,1.0,14.0,48,0.00,,,0.00,Wunderground v.1.15,2013-05-03 00:41:00,
2013-05-02 20:45:00,56.9,37.4,30.32,East,85,3.0,14.0,48,0.00,,,0.00,Wunderground v.1.15,2013-05-03 00:45:00,
2013-05-02 20:46:00,56.8,37.3,30.32,North,9,3.0,14.0,48,0.00,,,0.00,Wunderground v.1.15,2013-05-03 00:46:00,
2013-05-02 20:48:00,56.6,37.6,30.32,East,87,4.0,14.0,49,0.00,,,0.00,Wunderground v.1.15,2013-05-03 00:48:00,
2013-05-02 20:49:00,56.5,37.6,30.32,NE,54,4.0,14.0,49,0.00,,,0.00,Wunderground v.1.15,2013-05-03 00:49:00,
2013-05-02 20:51:00,56.2,37.3,30.32,East,98,5.0,14.0,49,0.00,,,0.00,Wunderground v.1.15,2013-05-03 00:51:00,
2013-05-02 20:52:00,56.1,37.2,30.32,West,269,6.0,14.0,49,0.00,,,0.00,Wunderground v.1.15,2013-05-03 00:52:00,
2013-05-02 20:53:00,56.0,37.1,30.32,ESE,111,6.0,16.0,49,0.00,,,0.00,Wunderground v.1.15,2013-05-03 00:53:00,
2013-05-02 20:57:00,55.6,36.7,30.32,ESE,108,8.0,16.0,49,0.00,,,0.00,Wunderground v.1.15,2013-05-03 00:57:00,
2013-05-02 20:59:00,55.4,36.5,30.32,East,96,9.0,16.0,49,0.00,,,0.00,Wunderground v.1.15,2013-05-03 00:59:00,
2013-05-02 21:02:00,55.3,37.0,30.33,NNW,347,9.0,12.0,50,0.00,,,0.00,Wunderground v.1.15,2013-05-03 01:02:00,
2013-05-02 21:04:00,55.2,36.9,30.33,East,92,8.0,12.0,50,0.00,,,0.00,Wunderground v.1.15,2013-05-03 01:04:00,
2013-05-02 21:05:00,55.2,36.9,30.33,ENE,61,8.0,12.0,50,0.00,,,0.00,Wunderground v.1.15,2013-05-03 01:05:00,
2013-05-02 21:10:00,55.0,35.7,30.33,East,89,9.0,12.0,48,0.00,,,0.00,Wunderground v.1.15,2013-05-03 01:10:00,
2013-05-02 21:11:00,55.0,36.2,30.33,NE,40,9.0,12.0,49,0.00,,,0.00,Wunderground v.1.15,2013-05-03 01:11:00,
2013-05-02 21:12:00,55.0,36.2,30.33,North,360,9.0,12.0,49,0.00,,,0.00,Wunderground v.1.15,2013-05-03 01:12:00,
2013-05-02 21:16:00,55.0,35.7,30.33,East,94,9.0,14.0,48,0.00,,,0.00,Wunderground v.1.15,2013-05-03 01:16:00,
2013-05-02 21:17:00,55.0,36.2,30.33,NW,307,9.0,14.0,49,0.00,,,0.00,Wunderground v.1.15,2013-05-03 01:17:00,
2013-05-02 21:18:00,55.0,35.7,30.33,WNW,294,8.0,14.0,48,0.00,,,0.00,Wunderground v.1.15,2013-05-03 01:18:00,
2013-05-02 21:19:00,55.0,35.7,30.33,NNE,14,7.0,14.0,48,0.00,,,0.00,Wunderground v.1.15,2013-05-03 01:19:00,
2013-05-02 21:23:00,55.0,35.1,30.33,NNE,24,4.0,12.0,47,0.00,,,0.00,Wunderground v.1.15,2013-05-03 01:23:00,
2013-05-02 21:24:00,55.0,34.6,30.33,NNE,24,4.0,12.0,46,0.00,,,0.00,Wunderground v.1.15,2013-05-03 01:24:00,
2013-05-02 21:25:00,55.0,35.1,30.33,SE,131,3.0,12.0,47,0.00,,,0.00,Wunderground v.1.15,2013-05-03 01:25:00,
2013-05-02 21:26:00,54.9,34.5,30.33,ESE,116,3.0,12.0,46,0.00,,,0.00,Wunderground v.1.15,2013-05-03 01:26:00,
2013-05-02 21:28:00,54.8,33.3,30.34,NE,38,3.0,12.0,44,0.00,,,0.00,Wunderground v.1.15,2013-05-03 01:28:00,
2013-05-02 21:31:00,54.8,32.1,30.33,WNW,302,3.0,12.0,42,0.00,,,0.00,Wunderground v.1.15,2013-05-03 01:31:00,
2013-05-02 21:32:00,54.7,31.4,30.34,North,5,3.0,12.0,41,0.00,,,0.00,Wunderground v.1.15,2013-05-03 01:32:00,
2013-05-02 21:33:00,54.7,31.4,30.34,SE,135,4.0,12.0,41,0.00,,,0.00,Wunderground v.1.15,2013-05-03 01:33:00,
2013-05-02 21:37:00,54.6,31.3,30.34,NNW,343,3.0,12.0,41,0.00,,,0.00,Wunderground v.1.15,2013-05-03 01:37:00,
2013-05-02 21:38:00,54.5,30.6,30.34,South,184,3.0,12.0,40,0.00,,,0.00,Wunderground v.1.15,2013-05-03 01:38:00,
2013-05-02 21:40:00,54.5,31.9,30.34,West,272,4.0,4.0,42,0.00,,,0.00,Wunderground v.1.15,2013-05-03 01:40:00,
2013-05-02 21:42:00,54.4,30.6,30.34,West,259,3.0,12.0,40,0.00,,,0.00,Wunderground v.1.15,2013-05-03 01:42:00,
2013-05-02 21:43:00,54.4,30.6,30.34,NNW,335,3.0,12.0,40,0.00,,,0.00,Wunderground v.1.15,2013-05-03 01:43:00,
2013-05-02 21:47:00,54.1,29.0,30.34,NW,317,3.0,12.0,38,0.00,,,0.00,Wunderground v.1.15,2013-05-03 01:47:00,
2013-05-02 21:48:00,54.1,28.4,30.34,West,280,3.0,12.0,37,0.00,,,0.00,Wunderground v.1.15,2013-05-03 01:48:00,
2013-05-02 21:53:00,54.0,29.6,30.34,North,355,4.0,12.0,39,0.00,,,0.00,Wunderground v.1.15,2013-05-03 01:53:00,
2013-05-02 21:55:00,53.9,28.8,30.34,NW,324,4.0,12.0,38,0.00,,,0.00,Wunderground v.1.15,2013-05-03 01:55:00,
2013-05-02 21:56:00,53.9,28.8,30.34,NW,311,3.0,12.0,38,0.00,,,0.00,Wunderground v.1.15,2013-05-03 01:56:00,
2013-05-02 21:57:00,53.9,28.8,30.34,WSW,243,4.0,12.0,38,0.00,,,0.00,Wunderground v.1.15,2013-05-03 01:57:00,
2013-05-02 21:59:00,53.8,28.1,30.33,NNE,25,4.0,12.0,37,0.00,,,0.00,Wunderground v.1.15,2013-05-03 01:59:00,
2013-05-02 22:02:00,53.7,28.0,30.34,North,355,3.0,12.0,37,0.00,,,0.00,Wunderground v.1.15,2013-05-03 02:02:00,
2013-05-02 22:03:00,53.7,28.7,30.34,North,355,3.0,12.0,38,0.00,,,0.00,Wunderground v.1.15,2013-05-03 02:03:00,
2013-05-02 22:05:00,53.7,29.3,30.34,North,355,2.0,12.0,39,0.00,,,0.00,Wunderground v.1.15,2013-05-03 02:05:00,
2013-05-02 22:07:00,53.7,28.0,30.34,North,355,2.0,12.0,37,0.00,,,0.00,Wunderground v.1.15,2013-05-03 02:07:00,
2013-05-02 22:08:00,53.7,28.0,30.33,North,5,2.0,12.0,37,0.00,,,0.00,Wunderground v.1.15,2013-05-03 02:08:00,
2013-05-02 22:10:00,53.7,28.0,30.34,North,11,1.0,1.0,37,0.00,,,0.00,Wunderground v.1.15,2013-05-03 02:10:00,
2013-05-02 22:12:00,53.7,27.4,30.34,ENE,69,1.0,12.0,36,0.00,,,0.00,Wunderground v.1.15,2013-05-03 02:12:00,
2013-05-02 22:14:00,53.7,27.4,30.34,NNE,28,1.0,12.0,36,0.00,,,0.00,Wunderground v.1.15,2013-05-03 02:14:00,
2013-05-02 22:16:00,53.7,27.4,30.34,NNE,25,1.0,12.0,36,0.00,,,0.00,Wunderground v.1.15,2013-05-03 02:16:00,
2013-05-02 22:17:00,53.7,27.4,30.34,NNE,25,1.0,12.0,36,0.00,,,0.00,Wunderground v.1.15,2013-05-03 02:17:00,
2013-05-02 22:18:00,53.7,27.4,30.34,North,9,1.0,12.0,36,0.00,,,0.00,Wunderground v.1.15,2013-05-03 02:18:00,
2013-05-02 22:20:00,53.7,26.7,30.34,NNE,23,1.0,12.0,35,0.00,,,0.00,Wunderground v.1.15,2013-05-03 02:20:00,
2013-05-02 22:22:00,53.6,26.6,30.34,NNE,26,2.0,12.0,35,0.00,,,0.00,Wunderground v.1.15,2013-05-03 02:22:00,
2013-05-02 22:25:00,53.6,27.9,30.34,NNE,26,2.0,12.0,37,0.00,,,0.00,Wunderground v.1.15,2013-05-03 02:25:00,
2013-05-02 22:27:00,53.6,27.3,30.34,NNE,26,2.0,12.0,36,0.00,,,0.00,Wunderground v.1.15,2013-05-03 02:27:00,
2013-05-02 22:30:00,53.6,27.9,30.34,NNE,26,1.0,1.0,37,0.00,,,0.00,Wunderground v.1.15,2013-05-03 02:30:00,
2013-05-02 22:32:00,53.5,27.8,30.34,NNE,26,1.0,12.0,37,0.00,,,0.00,Wunderground v.1.15,2013-05-03 02:32:00,
2013-05-02 22:33:00,53.5,27.8,30.34,NNE,26,1.0,12.0,37,0.00,,,0.00,Wunderground v.1.15,2013-05-03 02:33:00,
2013-05-02 22:36:00,53.5,28.5,30.34,NNE,19,1.0,12.0,38,0.00,,,0.00,Wunderground v.1.15,2013-05-03 02:36:00,
2013-05-02 22:38:00,53.4,28.4,30.34,East,95,0.0,12.0,38,0.00,,,0.00,Wunderground v.1.15,2013-05-03 02:38:00,
2013-05-02 22:39:00,53.4,28.4,30.34,East,96,0.0,12.0,38,0.00,,,0.00,Wunderground v.1.15,2013-05-03 02:39:00,
2013-05-02 22:40:00,53.4,28.4,30.34,East,91,0.0,12.0,38,0.00,,,0.00,Wunderground v.1.15,2013-05-03 02:40:00,
2013-05-02 22:42:00,53.3,28.3,30.34,NE,44,0.0,12.0,38,0.00,,,0.00,Wunderground v.1.15,2013-05-03 02:42:00,
2013-05-02 22:44:00,53.3,28.3,30.34,NE,40,0.0,12.0,38,0.00,,,0.00,Wunderground v.1.15,2013-05-03 02:44:00,
2013-05-02 22:46:00,53.3,28.3,30.34,NE,40,0.0,12.0,38,0.00,,,0.00,Wunderground v.1.15,2013-05-03 02:46:00,
2013-05-02 22:48:00,53.3,28.3,30.34,North,5,0.0,12.0,38,0.00,,,0.00,Wunderground v.1.15,2013-05-03 02:48:00,
2013-05-02 22:49:00,53.2,28.2,30.34,North,5,1.0,12.0,38,0.00,,,0.00,Wunderground v.1.15,2013-05-03 02:49:00,
2013-05-02 22:50:00,53.2,28.2,30.34,North,5,1.0,1.0,38,0.00,,,0.00,Wunderground v.1.15,2013-05-03 02:50:00,
2013-05-02 22:54:00,53.2,28.9,30.34,North,10,1.0,12.0,39,0.00,,,0.00,Wunderground v.1.15,2013-05-03 02:54:00,
2013-05-02 22:56:00,53.1,28.8,30.34,NE,38,1.0,12.0,39,0.00,,,0.00,Wunderground v.1.15,2013-05-03 02:56:00,
2013-05-02 22:59:00,53.1,28.8,30.34,NE,37,0.0,12.0,39,0.00,,,0.00,Wunderground v.1.15,2013-05-03 02:59:00,
2013-05-02 23:00:00,53.0,28.7,30.34,NE,53,0.0,6.0,39,0.00,,,0.00,Wunderground v.1.15,2013-05-03 03:00:00,
2013-05-02 23:01:00,53.0,28.7,30.34,ENE,61,0.0,6.0,39,0.00,,,0.00,Wunderground v.1.15,2013-05-03 03:01:00,
2013-05-02 23:04:00,52.9,28.6,30.34,NE,56,0.0,6.0,39,0.00,,,0.00,Wunderground v.1.15,2013-05-03 03:04:00,
2013-05-02 23:06:00,52.9,28.6,30.34,NE,38,0.0,6.0,39,0.00,,,0.00,Wunderground v.1.15,2013-05-03 03:06:00,
2013-05-02 23:09:00,52.9,29.2,30.34,NE,38,0.0,6.0,40,0.00,,,0.00,Wunderground v.1.15,2013-05-03 03:09:00,
2013-05-02 23:10:00,52.9,29.2,30.34,NE,38,0.0,6.0,40,0.00,,,0.00,Wunderground v.1.15,2013-05-03 03:10:00,
2013-05-02 23:11:00,52.9,29.2,30.34,NE,38,0.0,6.0,40,0.00,,,0.00,Wunderground v.1.15,2013-05-03 03:11:00,
2013-05-02 23:16:00,52.8,29.1,30.34,NE,38,0.0,6.0,40,0.00,,,0.00,Wunderground v.1.15,2013-05-03 03:16:00,
2013-05-02 23:17:00,52.8,29.7,30.34,North,11,0.0,6.0,41,0.00,,,0.00,Wunderground v.1.15,2013-05-03 03:17:00,
2013-05-02 23:21:00,52.8,29.1,30.34,NNE,30,1.0,3.0,40,0.00,,,0.00,Wunderground v.1.15,2013-05-03 03:21:00,
2013-05-02 23:23:00,52.7,29.6,30.34,NNE,31,1.0,6.0,41,0.00,,,0.00,Wunderground v.1.15,2013-05-03 03:23:00,
2013-05-02 23:25:00,52.7,29.6,30.34,NNE,30,1.0,6.0,41,0.00,,,0.00,Wunderground v.1.15,2013-05-03 03:25:00,
2013-05-02 23:28:00,52.7,29.6,30.34,NE,36,0.0,6.0,41,0.00,,,0.00,Wunderground v.1.15,2013-05-03 03:28:00,
2013-05-02 23:31:00,52.7,30.2,30.34,NE,36,0.0,6.0,42,0.00,,,0.00,Wunderground v.1.15,2013-05-03 03:31:00,
2013-05-02 23:33:00,52.6,29.5,30.34,NE,36,0.0,6.0,41,0.00,,,0.00,Wunderground v.1.15,2013-05-03 03:33:00,
2013-05-02 23:34:00,52.6,29.5,30.34,NE,34,0.0,6.0,41,0.00,,,0.00,Wunderground v.1.15,2013-05-03 03:34:00,
2013-05-02 23:36:00,52.6,29.5,30.34,NNE,31,0.0,6.0,41,0.00,,,0.00,Wunderground v.1.15,2013-05-03 03:36:00,
2013-05-02 23:37:00,52.6,30.1,30.34,NNE,31,0.0,6.0,42,0.00,,,0.00,Wunderground v.1.15,2013-05-03 03:37:00,
2013-05-02 23:38:00,52.6,30.1,30.34,NNE,31,0.0,6.0,42,0.00,,,0.00,Wunderground v.1.15,2013-05-03 03:38:00,
2013-05-02 23:42:00,52.6,30.7,30.34,NNE,31,0.0,6.0,43,0.00,,,0.00,Wunderground v.1.15,2013-05-03 03:42:00,
2013-05-02 23:44:00,52.6,30.1,30.34,NNE,31,0.0,6.0,42,0.00,,,0.00,Wunderground v.1.15,2013-05-03 03:44:00,
2013-05-02 23:47:00,52.5,30.0,30.34,NNE,31,0.0,6.0,42,0.00,,,0.00,Wunderground v.1.15,2013-05-03 03:47:00,
2013-05-02 23:48:00,52.5,30.0,30.34,NNE,31,0.0,6.0,42,0.00,,,0.00,Wunderground v.1.15,2013-05-03 03:48:00,
2013-05-02 23:49:00,52.5,30.0,30.34,NNE,31,0.0,6.0,42,0.00,,,0.00,Wunderground v.1.15,2013-05-03 03:49:00,
2013-05-02 23:53:00,52.4,30.5,30.34,NE,44,0.0,6.0,43,0.00,,,0.00,Wunderground v.1.15,2013-05-03 03:53:00,
2013-05-02 23:54:00,52.4,30.5,30.34,NE,44,1.0,6.0,43,0.00,,,0.00,Wunderground v.1.15,2013-05-03 03:54:00,
2013-05-02 23:55:00,52.3,30.4,30.34,NE,44,1.0,6.0,43,0.00,,,0.00,Wunderground v.1.15,2013-05-03 03:55:00,
2013-05-02 23:56:00,52.3,30.4,30.34,NE,44,1.0,6.0,43,0.00,,,0.00,Wunderground v.1.15,2013-05-03 03:56:00,
2013-05-02 23:59:00,52.3,30.4,30.34,NE,44,0.0,6.0,43,0.00,,,0.00,Wunderground v.1.15,2013-05-03 03:59:00,